<?xml version="1.0" encoding="UTF-8" standalone="no" ?>
<gpx xmlns="http://www.topografix.com/GPX/1/1" xmlns:xsi="http://www.w3.org/2001/XMLSchema-instance" xsi:schemaLocation="http://www.topografix.com/GPX/1/1 http://www.topografix.com/GPX/1/1/gpx.xsd" version="1.1" creator="VisuGPX - https://www.visugpx.com">
  <metadata>
    <name>ROUTE_NORD 65 KM  156 MD+</name>
  </metadata>
  <trk>
    <name><![CDATA[ROUTE_NORD 65 KM  156 MD+]]></name>
    <extensions>
      <line xmlns="http://www.topografix.com/GPX/gpx_style/0/2">
        <width>4</width>
      </line>
    </extensions>
    <trkseg>
      <trkpt lat="50.47941" lon="3.10461">
        <ele>75</ele>
        <time>2008-10-24T21:56:50.000Z</time>
      </trkpt>
      <trkpt lat="50.47965" lon="3.10268">
        <ele>78.9</ele>
        <time>2008-10-24T21:56:50.000Z</time>
      </trkpt>
      <trkpt lat="50.47941" lon="3.1014">
        <ele>86.1</ele>
        <time>2008-10-24T21:56:50.000Z</time>
      </trkpt>
      <trkpt lat="50.47928" lon="3.10148">
        <ele>86.7</ele>
      </trkpt>
      <trkpt lat="50.47932" lon="3.09887">
        <ele>91.9</ele>
        <time>2008-10-24T21:56:50.000Z</time>
      </trkpt>
      <trkpt lat="50.47886" lon="3.09763">
        <ele>87.4</ele>
        <time>2008-10-24T21:56:50.000Z</time>
      </trkpt>
      <trkpt lat="50.4779" lon="3.09655">
        <ele>74.1</ele>
        <time>2008-10-24T21:56:50.000Z</time>
      </trkpt>
      <trkpt lat="50.47732" lon="3.09619">
        <ele>70.2</ele>
        <time>2008-10-24T21:56:50.000Z</time>
      </trkpt>
      <trkpt lat="50.47693" lon="3.09596">
        <ele>68.2</ele>
      </trkpt>
      <trkpt lat="50.47661" lon="3.09571">
        <ele>66.6</ele>
      </trkpt>
      <trkpt lat="50.47622" lon="3.09516">
        <ele>64.8</ele>
        <time>2008-10-24T21:56:50.000Z</time>
      </trkpt>
      <trkpt lat="50.47592" lon="3.09455">
        <ele>63.6</ele>
        <time>2008-10-24T21:56:50.000Z</time>
      </trkpt>
      <trkpt lat="50.47556" lon="3.09415">
        <ele>62.6</ele>
      </trkpt>
      <trkpt lat="50.47523" lon="3.0938">
        <ele>61.5</ele>
        <time>2008-10-24T21:56:50.000Z</time>
      </trkpt>
      <trkpt lat="50.47506" lon="3.09355">
        <ele>60.6</ele>
        <time>2008-10-24T21:56:50.000Z</time>
      </trkpt>
      <trkpt lat="50.47485" lon="3.09329">
        <ele>59.7</ele>
        <time>2008-10-24T21:56:50.000Z</time>
      </trkpt>
      <trkpt lat="50.47459" lon="3.09322">
        <ele>59.2</ele>
        <time>2008-10-24T21:56:50.000Z</time>
      </trkpt>
      <trkpt lat="50.47376" lon="3.09277">
        <ele>58</ele>
        <time>2008-10-24T21:56:50.000Z</time>
      </trkpt>
      <trkpt lat="50.47366" lon="3.09226">
        <ele>57.3</ele>
        <time>2008-10-24T21:56:50.000Z</time>
      </trkpt>
      <trkpt lat="50.47418" lon="3.09063">
        <ele>54.8</ele>
        <time>2008-10-24T21:56:50.000Z</time>
      </trkpt>
      <trkpt lat="50.47288" lon="3.08947">
        <ele>55.5</ele>
        <time>2008-10-24T21:56:50.000Z</time>
      </trkpt>
      <trkpt lat="50.47249" lon="3.08878">
        <ele>56</ele>
        <time>2008-10-24T21:56:50.000Z</time>
      </trkpt>
      <trkpt lat="50.47213" lon="3.08768">
        <ele>55.9</ele>
        <time>2008-10-24T21:56:50.000Z</time>
      </trkpt>
      <trkpt lat="50.472" lon="3.08679">
        <ele>56.7</ele>
        <time>2008-10-24T21:56:50.000Z</time>
      </trkpt>
      <trkpt lat="50.47202" lon="3.08568">
        <ele>54.4</ele>
        <time>2008-10-24T21:56:50.000Z</time>
      </trkpt>
      <trkpt lat="50.47202" lon="3.08432">
        <ele>52.7</ele>
        <time>2008-10-24T21:56:50.000Z</time>
      </trkpt>
      <trkpt lat="50.47139" lon="3.08333">
        <ele>54</ele>
        <time>2008-10-24T21:56:50.000Z</time>
      </trkpt>
      <trkpt lat="50.4709" lon="3.08257">
        <ele>55.7</ele>
        <time>2008-10-24T21:56:50.000Z</time>
      </trkpt>
      <trkpt lat="50.47053" lon="3.08203">
        <ele>56.7</ele>
        <time>2008-10-24T21:56:50.000Z</time>
      </trkpt>
      <trkpt lat="50.46983" lon="3.08164">
        <ele>58</ele>
        <time>2008-10-24T21:56:50.000Z</time>
      </trkpt>
      <trkpt lat="50.46902" lon="3.08113">
        <ele>57.3</ele>
        <time>2008-10-24T21:56:50.000Z</time>
      </trkpt>
      <trkpt lat="50.4688" lon="3.08104">
        <ele>57.1</ele>
        <time>2008-10-24T21:56:50.000Z</time>
      </trkpt>
      <trkpt lat="50.46838" lon="3.08102">
        <ele>57</ele>
        <time>2008-10-24T21:56:50.000Z</time>
      </trkpt>
      <trkpt lat="50.46822" lon="3.08102">
        <ele>56.9</ele>
        <time>2008-10-24T21:56:50.000Z</time>
      </trkpt>
      <trkpt lat="50.46804" lon="3.08089">
        <ele>56.6</ele>
        <time>2008-10-24T21:56:50.000Z</time>
      </trkpt>
      <trkpt lat="50.46669" lon="3.07871">
        <ele>59.5</ele>
        <time>2008-10-24T21:56:50.000Z</time>
      </trkpt>
      <trkpt lat="50.46492" lon="3.07615">
        <ele>61.7</ele>
        <time>2008-10-24T21:56:50.000Z</time>
      </trkpt>
      <trkpt lat="50.46258" lon="3.07911">
        <ele>60.1</ele>
        <time>2008-10-24T21:56:50.000Z</time>
      </trkpt>
      <trkpt lat="50.46131" lon="3.08072">
        <ele>63</ele>
        <time>2008-10-24T21:56:50.000Z</time>
      </trkpt>
      <trkpt lat="50.46056" lon="3.0812">
        <ele>64.1</ele>
        <time>2008-10-24T21:56:50.000Z</time>
      </trkpt>
      <trkpt lat="50.45983" lon="3.08135">
        <ele>64.6</ele>
        <time>2008-10-24T21:56:50.000Z</time>
      </trkpt>
      <trkpt lat="50.45892" lon="3.0812">
        <ele>65.2</ele>
        <time>2008-10-24T21:56:50.000Z</time>
      </trkpt>
      <trkpt lat="50.45756" lon="3.07971">
        <ele>66.2</ele>
        <time>2008-10-24T21:56:50.000Z</time>
      </trkpt>
      <trkpt lat="50.45739" lon="3.07999">
        <ele>67.1</ele>
      </trkpt>
      <trkpt lat="50.45739" lon="3.08078">
        <ele>67.3</ele>
      </trkpt>
      <trkpt lat="50.45712" lon="3.08324">
        <ele>69.3</ele>
        <time>2008-10-24T21:56:50.000Z</time>
      </trkpt>
      <trkpt lat="50.457" lon="3.08438">
        <ele>70</ele>
        <time>2008-10-24T21:56:50.000Z</time>
      </trkpt>
      <trkpt lat="50.45697" lon="3.08537">
        <ele>70.3</ele>
        <time>2008-10-24T21:56:50.000Z</time>
      </trkpt>
      <trkpt lat="50.45687" lon="3.08623">
        <ele>70</ele>
        <time>2008-10-24T21:56:50.000Z</time>
      </trkpt>
      <trkpt lat="50.45722" lon="3.08648">
        <ele>69.3</ele>
        <time>2008-10-24T21:56:50.000Z</time>
      </trkpt>
      <trkpt lat="50.45701" lon="3.08693">
        <ele>69.1</ele>
        <time>2008-10-24T21:56:50.000Z</time>
      </trkpt>
      <trkpt lat="50.4569" lon="3.08742">
        <ele>68.2</ele>
        <time>2008-10-24T21:56:50.000Z</time>
      </trkpt>
      <trkpt lat="50.45681" lon="3.08803">
        <ele>66.7</ele>
        <time>2008-10-24T21:56:50.000Z</time>
      </trkpt>
      <trkpt lat="50.4568" lon="3.08902">
        <ele>63.6</ele>
        <time>2008-10-24T21:56:50.000Z</time>
      </trkpt>
      <trkpt lat="50.45652" lon="3.09121">
        <ele>58.2</ele>
        <time>2008-10-24T21:56:50.000Z</time>
      </trkpt>
      <trkpt lat="50.45605" lon="3.09438">
        <ele>51.3</ele>
        <time>2008-10-24T21:56:50.000Z</time>
      </trkpt>
      <trkpt lat="50.45584" lon="3.09561">
        <ele>49</ele>
        <time>2008-10-24T21:56:50.000Z</time>
      </trkpt>
      <trkpt lat="50.45558" lon="3.0965">
        <ele>48.5</ele>
        <time>2008-10-24T21:56:50.000Z</time>
      </trkpt>
      <trkpt lat="50.45598" lon="3.09688">
        <ele>47.8</ele>
        <time>2008-10-24T21:56:50.000Z</time>
      </trkpt>
      <trkpt lat="50.45633" lon="3.0978">
        <ele>47.1</ele>
        <time>2008-10-24T21:56:50.000Z</time>
      </trkpt>
      <trkpt lat="50.4564" lon="3.09857">
        <ele>46.2</ele>
        <time>2008-10-24T21:56:50.000Z</time>
      </trkpt>
      <trkpt lat="50.457" lon="3.10081">
        <ele>45</ele>
        <time>2008-10-24T21:56:50.000Z</time>
      </trkpt>
      <trkpt lat="50.4571" lon="3.10104">
        <ele>44.9</ele>
        <time>2008-10-24T21:56:50.000Z</time>
      </trkpt>
      <trkpt lat="50.4576" lon="3.10189">
        <ele>44.7</ele>
        <time>2008-10-24T21:56:50.000Z</time>
      </trkpt>
      <trkpt lat="50.45644" lon="3.10405">
        <ele>43.3</ele>
        <time>2008-10-24T21:56:50.000Z</time>
      </trkpt>
      <trkpt lat="50.4564" lon="3.10431">
        <ele>43.4</ele>
        <time>2008-10-24T21:56:50.000Z</time>
      </trkpt>
      <trkpt lat="50.45744" lon="3.10767">
        <ele>42.1</ele>
        <time>2008-10-24T21:56:50.000Z</time>
      </trkpt>
      <trkpt lat="50.45905" lon="3.10574">
        <ele>42</ele>
        <time>2008-10-24T21:56:50.000Z</time>
      </trkpt>
      <trkpt lat="50.45956" lon="3.10758">
        <ele>40</ele>
        <time>2008-10-24T21:56:50.000Z</time>
      </trkpt>
      <trkpt lat="50.46" lon="3.10885">
        <ele>39</ele>
        <time>2008-10-24T21:56:50.000Z</time>
      </trkpt>
      <trkpt lat="50.46031" lon="3.1095">
        <ele>39.9</ele>
        <time>2008-10-24T21:56:50.000Z</time>
      </trkpt>
      <trkpt lat="50.46129" lon="3.11133">
        <ele>40.9</ele>
        <time>2008-10-24T21:56:50.000Z</time>
      </trkpt>
      <trkpt lat="50.46254" lon="3.1133">
        <ele>39.9</ele>
        <time>2008-10-24T21:56:50.000Z</time>
      </trkpt>
      <trkpt lat="50.46301" lon="3.11411">
        <ele>38.8</ele>
        <time>2008-10-24T21:56:50.000Z</time>
      </trkpt>
      <trkpt lat="50.46326" lon="3.11472">
        <ele>38.2</ele>
        <time>2008-10-24T21:56:50.000Z</time>
      </trkpt>
      <trkpt lat="50.46349" lon="3.11567">
        <ele>37</ele>
        <time>2008-10-24T21:56:50.000Z</time>
      </trkpt>
      <trkpt lat="50.46375" lon="3.11852">
        <ele>34.6</ele>
        <time>2008-10-24T21:56:50.000Z</time>
      </trkpt>
      <trkpt lat="50.46402" lon="3.12047">
        <ele>36.9</ele>
        <time>2008-10-24T21:56:50.000Z</time>
      </trkpt>
      <trkpt lat="50.46354" lon="3.12073">
        <ele>36.9</ele>
      </trkpt>
      <trkpt lat="50.45719" lon="3.12254">
        <ele>40.3</ele>
      </trkpt>
      <trkpt lat="50.4556" lon="3.1233">
        <ele>41</ele>
      </trkpt>
      <trkpt lat="50.45198" lon="3.12396">
        <ele>41.5</ele>
      </trkpt>
      <trkpt lat="50.44987" lon="3.12271">
        <ele>39.5</ele>
        <time>2008-10-24T21:56:50.000Z</time>
      </trkpt>
      <trkpt lat="50.44875" lon="3.12468">
        <ele>36.6</ele>
      </trkpt>
      <trkpt lat="50.44543" lon="3.12831">
        <ele>35.1</ele>
      </trkpt>
      <trkpt lat="50.44574" lon="3.1344">
        <ele>33.1</ele>
      </trkpt>
      <trkpt lat="50.44567" lon="3.13479">
        <ele>33.1</ele>
        <time>2008-10-24T21:56:50.000Z</time>
      </trkpt>
      <trkpt lat="50.44429" lon="3.13526">
        <ele>32.1</ele>
      </trkpt>
      <trkpt lat="50.44357" lon="3.13542">
        <ele>32</ele>
      </trkpt>
      <trkpt lat="50.44451" lon="3.13854">
        <ele>31.6</ele>
        <time>2008-10-24T21:56:50.000Z</time>
      </trkpt>
      <trkpt lat="50.44472" lon="3.141">
        <ele>30.5</ele>
        <time>2008-10-24T21:56:50.000Z</time>
      </trkpt>
      <trkpt lat="50.44495" lon="3.14322">
        <ele>29.2</ele>
        <time>2008-10-24T21:56:50.000Z</time>
      </trkpt>
      <trkpt lat="50.44525" lon="3.14523">
        <ele>29</ele>
        <time>2008-10-24T21:56:50.000Z</time>
      </trkpt>
      <trkpt lat="50.446" lon="3.14647">
        <ele>29.4</ele>
        <time>2008-10-24T21:56:50.000Z</time>
      </trkpt>
      <trkpt lat="50.44623" lon="3.14696">
        <ele>30</ele>
        <time>2008-10-24T21:56:50.000Z</time>
      </trkpt>
      <trkpt lat="50.44673" lon="3.1494">
        <ele>27.9</ele>
        <time>2008-10-24T21:56:50.000Z</time>
      </trkpt>
      <trkpt lat="50.44661" lon="3.1511">
        <ele>27.4</ele>
        <time>2008-10-24T21:56:50.000Z</time>
      </trkpt>
      <trkpt lat="50.44658" lon="3.15284">
        <ele>27.8</ele>
        <time>2008-10-24T21:56:50.000Z</time>
      </trkpt>
      <trkpt lat="50.44675" lon="3.15421">
        <ele>27.2</ele>
        <time>2008-10-24T21:56:50.000Z</time>
      </trkpt>
      <trkpt lat="50.44764" lon="3.15428">
        <ele>28.9</ele>
        <time>2008-10-24T21:56:50.000Z</time>
      </trkpt>
      <trkpt lat="50.44829" lon="3.15567">
        <ele>28</ele>
        <time>2008-10-24T21:56:50.000Z</time>
      </trkpt>
      <trkpt lat="50.44873" lon="3.1563">
        <ele>27.9</ele>
        <time>2008-10-24T21:56:50.000Z</time>
      </trkpt>
      <trkpt lat="50.45024" lon="3.1578">
        <ele>29.3</ele>
        <time>2008-10-24T21:56:50.000Z</time>
      </trkpt>
      <trkpt lat="50.4509" lon="3.15862">
        <ele>30.1</ele>
        <time>2008-10-24T21:56:50.000Z</time>
      </trkpt>
      <trkpt lat="50.45258" lon="3.16154">
        <ele>31.9</ele>
        <time>2008-10-24T21:56:50.000Z</time>
      </trkpt>
      <trkpt lat="50.45357" lon="3.16242">
        <ele>32</ele>
        <time>2008-10-24T21:56:50.000Z</time>
      </trkpt>
      <trkpt lat="50.45425" lon="3.16276">
        <ele>32.4</ele>
        <time>2008-10-24T21:56:50.000Z</time>
      </trkpt>
      <trkpt lat="50.45471" lon="3.16291">
        <ele>32.5</ele>
        <time>2008-10-24T21:56:50.000Z</time>
      </trkpt>
      <trkpt lat="50.45767" lon="3.16516">
        <ele>30.4</ele>
        <time>2008-10-24T21:56:50.000Z</time>
      </trkpt>
      <trkpt lat="50.45913" lon="3.16666">
        <ele>26.1</ele>
        <time>2008-10-24T21:56:50.000Z</time>
      </trkpt>
      <trkpt lat="50.45995" lon="3.16679">
        <ele>27.1</ele>
        <time>2008-10-24T21:56:50.000Z</time>
      </trkpt>
      <trkpt lat="50.46022" lon="3.16697">
        <ele>27.5</ele>
        <time>2008-10-24T21:56:50.000Z</time>
      </trkpt>
      <trkpt lat="50.46051" lon="3.16742">
        <ele>28</ele>
        <time>2008-10-24T21:56:50.000Z</time>
      </trkpt>
      <trkpt lat="50.46057" lon="3.16784">
        <ele>28.4</ele>
        <time>2008-10-24T21:56:50.000Z</time>
      </trkpt>
      <trkpt lat="50.4617" lon="3.16937">
        <ele>29.9</ele>
        <time>2008-10-24T21:56:50.000Z</time>
      </trkpt>
      <trkpt lat="50.4632" lon="3.17175">
        <ele>31.8</ele>
        <time>2008-10-24T21:56:50.000Z</time>
      </trkpt>
      <trkpt lat="50.4639" lon="3.17271">
        <ele>31.8</ele>
        <time>2008-10-24T21:56:50.000Z</time>
      </trkpt>
      <trkpt lat="50.46448" lon="3.17311">
        <ele>31.6</ele>
        <time>2008-10-24T21:56:50.000Z</time>
      </trkpt>
      <trkpt lat="50.46506" lon="3.17373">
        <ele>32.1</ele>
        <time>2008-10-24T21:56:50.000Z</time>
      </trkpt>
      <trkpt lat="50.46505" lon="3.17381">
        <ele>32.1</ele>
        <time>2008-10-24T21:56:50.537Z</time>
      </trkpt>
      <trkpt lat="50.46481" lon="3.17447">
        <ele>31.7</ele>
        <time>2008-10-24T21:56:55.939Z</time>
      </trkpt>
      <trkpt lat="50.46435" lon="3.17539">
        <ele>30.8</ele>
        <time>2008-10-24T21:57:04.244Z</time>
      </trkpt>
      <trkpt lat="50.46335" lon="3.17731">
        <ele>32.8</ele>
        <time>2008-10-24T21:57:21.826Z</time>
      </trkpt>
      <trkpt lat="50.46163" lon="3.18001">
        <ele>36</ele>
        <time>2008-10-24T21:57:48.821Z</time>
      </trkpt>
      <trkpt lat="50.46099" lon="3.18081">
        <ele>35.2</ele>
        <time>2008-10-24T21:57:57.933Z</time>
      </trkpt>
      <trkpt lat="50.46074" lon="3.18316">
        <ele>35.8</ele>
        <time>2008-10-24T21:58:14.813Z</time>
      </trkpt>
      <trkpt lat="50.4606" lon="3.1845">
        <ele>33.7</ele>
        <time>2008-10-24T21:58:24.437Z</time>
      </trkpt>
      <trkpt lat="50.46162" lon="3.18508">
        <ele>35.7</ele>
        <time>2008-10-24T21:58:36.471Z</time>
      </trkpt>
      <trkpt lat="50.46172" lon="3.18524">
        <ele>35.7</ele>
        <time>2008-10-24T21:58:38.121Z</time>
      </trkpt>
      <trkpt lat="50.46177" lon="3.18562">
        <ele>35.4</ele>
        <time>2008-10-24T21:58:40.853Z</time>
      </trkpt>
      <trkpt lat="50.46178" lon="3.1861">
        <ele>34.8</ele>
        <time>2008-10-24T21:58:44.266Z</time>
      </trkpt>
      <trkpt lat="50.46175" lon="3.18654">
        <ele>34.3</ele>
        <time>2008-10-24T21:58:47.360Z</time>
      </trkpt>
      <trkpt lat="50.46168" lon="3.18711">
        <ele>34</ele>
        <time>2008-10-24T21:58:51.529Z</time>
      </trkpt>
      <trkpt lat="50.46122" lon="3.18806">
        <ele>33.5</ele>
        <time>2008-10-24T21:58:59.934Z</time>
      </trkpt>
      <trkpt lat="50.46062" lon="3.18916">
        <ele>34.2</ele>
        <time>2008-10-24T21:59:10.146Z</time>
      </trkpt>
      <trkpt lat="50.46048" lon="3.19239">
        <ele>34.6</ele>
        <time>2008-10-24T21:59:33.095Z</time>
      </trkpt>
      <trkpt lat="50.46062" lon="3.19369">
        <ele>34.4</ele>
        <time>2008-10-24T21:59:42.362Z</time>
      </trkpt>
      <trkpt lat="50.46053" lon="3.19663">
        <ele>32.7</ele>
        <time>2008-10-24T22:00:03.233Z</time>
      </trkpt>
      <trkpt lat="50.46028" lon="3.19804">
        <ele>32.3</ele>
        <time>2008-10-24T22:00:13.616Z</time>
      </trkpt>
      <trkpt lat="50.46041" lon="3.19853">
        <ele>32.5</ele>
        <time>2008-10-24T22:00:17.333Z</time>
      </trkpt>
      <trkpt lat="50.46055" lon="3.19935">
        <ele>32.7</ele>
        <time>2008-10-24T22:00:23.315Z</time>
      </trkpt>
      <trkpt lat="50.46066" lon="3.20037">
        <ele>33</ele>
        <time>2008-10-24T22:00:30.704Z</time>
      </trkpt>
      <trkpt lat="50.4606" lon="3.20276">
        <ele>33.7</ele>
        <time>2008-10-24T22:00:47.593Z</time>
      </trkpt>
      <trkpt lat="50.45926" lon="3.20332">
        <ele>35.1</ele>
        <time>2008-10-24T22:01:03.040Z</time>
      </trkpt>
      <trkpt lat="50.45782" lon="3.20346">
        <ele>32.4</ele>
        <time>2008-10-24T22:01:19.028Z</time>
      </trkpt>
      <trkpt lat="50.45733" lon="3.20364">
        <ele>31.8</ele>
        <time>2008-10-24T22:01:24.706Z</time>
      </trkpt>
      <trkpt lat="50.45698" lon="3.20416">
        <ele>31.4</ele>
        <time>2008-10-24T22:01:30.060Z</time>
      </trkpt>
      <trkpt lat="50.45667" lon="3.20441">
        <ele>30.7</ele>
        <time>2008-10-24T22:01:33.904Z</time>
      </trkpt>
      <trkpt lat="50.45639" lon="3.20471">
        <ele>29.9</ele>
        <time>2008-10-24T22:01:37.653Z</time>
      </trkpt>
      <trkpt lat="50.455" lon="3.20342">
        <ele>28.9</ele>
        <time>2008-10-24T22:01:55.647Z</time>
      </trkpt>
      <trkpt lat="50.45326" lon="3.20186">
        <ele>25.1</ele>
        <time>2008-10-24T22:02:17.887Z</time>
      </trkpt>
      <trkpt lat="50.45278" lon="3.2016">
        <ele>25.6</ele>
        <time>2008-10-24T22:02:23.602Z</time>
      </trkpt>
      <trkpt lat="50.45227" lon="3.20517">
        <ele>26</ele>
        <time>2008-10-24T22:02:49.490Z</time>
      </trkpt>
      <trkpt lat="50.45209" lon="3.20778">
        <ele>24.8</ele>
        <time>2008-10-24T22:03:08.114Z</time>
      </trkpt>
      <trkpt lat="50.45192" lon="3.20913">
        <ele>24.3</ele>
        <time>2008-10-24T22:03:17.854Z</time>
      </trkpt>
      <trkpt lat="50.45158" lon="3.21003">
        <ele>24.8</ele>
        <time>2008-10-24T22:03:25.246Z</time>
      </trkpt>
      <trkpt lat="50.45118" lon="3.21103">
        <ele>24.5</ele>
        <time>2008-10-24T22:03:33.595Z</time>
      </trkpt>
      <trkpt lat="50.45063" lon="3.21177">
        <ele>24.8</ele>
        <time>2008-10-24T22:03:41.624Z</time>
      </trkpt>
      <trkpt lat="50.4497" lon="3.21268">
        <ele>25.1</ele>
        <time>2008-10-24T22:03:53.850Z</time>
      </trkpt>
      <trkpt lat="50.44928" lon="3.21317">
        <ele>24.4</ele>
        <time>2008-10-24T22:03:59.668Z</time>
      </trkpt>
      <trkpt lat="50.44912" lon="3.21402">
        <ele>23.2</ele>
        <time>2008-10-24T22:04:05.961Z</time>
      </trkpt>
      <trkpt lat="50.44902" lon="3.21502">
        <ele>22.2</ele>
        <time>2008-10-24T22:04:13.089Z</time>
      </trkpt>
      <trkpt lat="50.4494" lon="3.21633">
        <ele>23.6</ele>
        <time>2008-10-24T22:04:23.307Z</time>
      </trkpt>
      <trkpt lat="50.44981" lon="3.21688">
        <ele>24.2</ele>
        <time>2008-10-24T22:04:29.334Z</time>
      </trkpt>
      <trkpt lat="50.45017" lon="3.21747">
        <ele>24.8</ele>
        <time>2008-10-24T22:04:35.168Z</time>
      </trkpt>
      <trkpt lat="50.45049" lon="3.21772">
        <ele>24.7</ele>
        <time>2008-10-24T22:04:39.115Z</time>
      </trkpt>
      <trkpt lat="50.45093" lon="3.21808">
        <ele>24.8</ele>
        <time>2008-10-24T22:04:44.616Z</time>
      </trkpt>
      <trkpt lat="50.45201" lon="3.21926">
        <ele>26</ele>
        <time>2008-10-24T22:04:59.208Z</time>
      </trkpt>
      <trkpt lat="50.45335" lon="3.22059">
        <ele>25.8</ele>
        <time>2008-10-24T22:05:16.912Z</time>
      </trkpt>
      <trkpt lat="50.45409" lon="3.22142">
        <ele>28.5</ele>
        <time>2008-10-24T22:05:26.947Z</time>
      </trkpt>
      <trkpt lat="50.45481" lon="3.22202">
        <ele>29.3</ele>
        <time>2008-10-24T22:05:36.040Z</time>
      </trkpt>
      <trkpt lat="50.45528" lon="3.22255">
        <ele>30</ele>
        <time>2008-10-24T22:05:42.454Z</time>
      </trkpt>
      <trkpt lat="50.45573" lon="3.22318">
        <ele>30.8</ele>
        <time>2008-10-24T22:05:49.182Z</time>
      </trkpt>
      <trkpt lat="50.45654" lon="3.22415">
        <ele>30.1</ele>
        <time>2008-10-24T22:06:00.520Z</time>
      </trkpt>
      <trkpt lat="50.45705" lon="3.22505">
        <ele>31.5</ele>
        <time>2008-10-24T22:06:09.105Z</time>
      </trkpt>
      <trkpt lat="50.45751" lon="3.22579">
        <ele>32</ele>
        <time>2008-10-24T22:06:16.427Z</time>
      </trkpt>
      <trkpt lat="50.45797" lon="3.22659">
        <ele>32.4</ele>
        <time>2008-10-24T22:06:23.962Z</time>
      </trkpt>
      <trkpt lat="50.45837" lon="3.22727">
        <ele>32.1</ele>
        <time>2008-10-24T22:06:30.603Z</time>
      </trkpt>
      <trkpt lat="50.45911" lon="3.22828">
        <ele>33.9</ele>
        <time>2008-10-24T22:06:41.413Z</time>
      </trkpt>
      <trkpt lat="50.46" lon="3.22921">
        <ele>35</ele>
        <time>2008-10-24T22:06:53.365Z</time>
      </trkpt>
      <trkpt lat="50.46075" lon="3.23058">
        <ele>34.9</ele>
        <time>2008-10-24T22:07:06.112Z</time>
      </trkpt>
      <trkpt lat="50.46118" lon="3.23153">
        <ele>35.4</ele>
        <time>2008-10-24T22:07:14.395Z</time>
      </trkpt>
      <trkpt lat="50.46158" lon="3.23271">
        <ele>35.9</ele>
        <time>2008-10-24T22:07:23.806Z</time>
      </trkpt>
      <trkpt lat="50.46239" lon="3.23345">
        <ele>36</ele>
        <time>2008-10-24T22:07:34.265Z</time>
      </trkpt>
      <trkpt lat="50.46261" lon="3.23379">
        <ele>36.1</ele>
        <time>2008-10-24T22:07:37.724Z</time>
      </trkpt>
      <trkpt lat="50.46278" lon="3.23471">
        <ele>36.8</ele>
        <time>2008-10-24T22:07:44.470Z</time>
      </trkpt>
      <trkpt lat="50.46293" lon="3.23528">
        <ele>37</ele>
        <time>2008-10-24T22:07:48.828Z</time>
      </trkpt>
      <trkpt lat="50.46328" lon="3.23565">
        <ele>37</ele>
        <time>2008-10-24T22:07:53.501Z</time>
      </trkpt>
      <trkpt lat="50.46363" lon="3.23585">
        <ele>37</ele>
        <time>2008-10-24T22:07:57.681Z</time>
      </trkpt>
      <trkpt lat="50.46401" lon="3.23617">
        <ele>36.6</ele>
        <time>2008-10-24T22:08:02.495Z</time>
      </trkpt>
      <trkpt lat="50.46405" lon="3.23641">
        <ele>36.3</ele>
        <time>2008-10-24T22:08:04.259Z</time>
      </trkpt>
      <trkpt lat="50.46155" lon="3.2474">
        <ele>29.9</ele>
        <time>2008-10-24T22:09:26.865Z</time>
      </trkpt>
      <trkpt lat="50.4613" lon="3.24861">
        <ele>28.6</ele>
        <time>2008-10-24T22:09:35.895Z</time>
      </trkpt>
      <trkpt lat="50.46109" lon="3.24924">
        <ele>28.3</ele>
        <time>2008-10-24T22:09:40.917Z</time>
      </trkpt>
      <trkpt lat="50.46095" lon="3.24945">
        <ele>27.9</ele>
        <time>2008-10-24T22:09:43.079Z</time>
      </trkpt>
      <trkpt lat="50.46103" lon="3.24964">
        <ele>27.9</ele>
        <time>2008-10-24T22:09:44.672Z</time>
      </trkpt>
      <trkpt lat="50.46115" lon="3.24972">
        <ele>28.2</ele>
        <time>2008-10-24T22:09:46.088Z</time>
      </trkpt>
      <trkpt lat="50.4613" lon="3.24964">
        <ele>28.6</ele>
        <time>2008-10-24T22:09:47.909Z</time>
      </trkpt>
      <trkpt lat="50.46374" lon="3.25128">
        <ele>29.5</ele>
        <time>2008-10-24T22:10:17.407Z</time>
      </trkpt>
      <trkpt lat="50.46483" lon="3.25204">
        <ele>29.8</ele>
        <time>2008-10-24T22:10:30.606Z</time>
      </trkpt>
      <trkpt lat="50.46547" lon="3.2524">
        <ele>31.1</ele>
        <time>2008-10-24T22:10:38.245Z</time>
      </trkpt>
      <trkpt lat="50.46589" lon="3.2526">
        <ele>32</ele>
        <time>2008-10-24T22:10:43.058Z</time>
      </trkpt>
      <trkpt lat="50.46651" lon="3.25272">
        <ele>31.2</ele>
        <time>2008-10-24T22:10:50.019Z</time>
      </trkpt>
      <trkpt lat="50.46723" lon="3.25276">
        <ele>30.3</ele>
        <time>2008-10-24T22:10:58.090Z</time>
      </trkpt>
      <trkpt lat="50.46744" lon="3.25286">
        <ele>30.1</ele>
        <time>2008-10-24T22:11:00.466Z</time>
      </trkpt>
      <trkpt lat="50.46753" lon="3.25296">
        <ele>30.1</ele>
        <time>2008-10-24T22:11:01.719Z</time>
      </trkpt>
      <trkpt lat="50.46767" lon="3.25337">
        <ele>30.6</ele>
        <time>2008-10-24T22:11:04.984Z</time>
      </trkpt>
      <trkpt lat="50.46772" lon="3.25369">
        <ele>30.7</ele>
        <time>2008-10-24T22:11:07.308Z</time>
      </trkpt>
      <trkpt lat="50.46747" lon="3.25457">
        <ele>29.5</ele>
        <time>2008-10-24T22:11:14.149Z</time>
      </trkpt>
      <trkpt lat="50.4673" lon="3.25517">
        <ele>29</ele>
        <time>2008-10-24T22:11:18.781Z</time>
      </trkpt>
      <trkpt lat="50.46718" lon="3.25553">
        <ele>29</ele>
        <time>2008-10-24T22:11:21.681Z</time>
      </trkpt>
      <trkpt lat="50.46702" lon="3.25614">
        <ele>29</ele>
        <time>2008-10-24T22:11:26.284Z</time>
      </trkpt>
      <trkpt lat="50.46676" lon="3.25722">
        <ele>28.3</ele>
        <time>2008-10-24T22:11:34.491Z</time>
      </trkpt>
      <trkpt lat="50.46656" lon="3.25802">
        <ele>26.7</ele>
        <time>2008-10-24T22:11:40.563Z</time>
      </trkpt>
      <trkpt lat="50.46619" lon="3.25943">
        <ele>25.8</ele>
        <time>2008-10-24T22:11:51.373Z</time>
      </trkpt>
      <trkpt lat="50.46592" lon="3.26052">
        <ele>25.1</ele>
        <time>2008-10-24T22:11:59.690Z</time>
      </trkpt>
      <trkpt lat="50.46566" lon="3.26152">
        <ele>24.2</ele>
        <time>2008-10-24T22:12:07.307Z</time>
      </trkpt>
      <trkpt lat="50.46551" lon="3.26223">
        <ele>24</ele>
        <time>2008-10-24T22:12:12.599Z</time>
      </trkpt>
      <trkpt lat="50.46528" lon="3.26305">
        <ele>24</ele>
        <time>2008-10-24T22:12:18.944Z</time>
      </trkpt>
      <trkpt lat="50.46485" lon="3.26466">
        <ele>23.4</ele>
        <time>2008-10-24T22:12:31.293Z</time>
      </trkpt>
      <trkpt lat="50.46466" lon="3.26555">
        <ele>23.7</ele>
        <time>2008-10-24T22:12:37.936Z</time>
      </trkpt>
      <trkpt lat="50.46431" lon="3.26669">
        <ele>25</ele>
        <time>2008-10-24T22:12:46.926Z</time>
      </trkpt>
      <trkpt lat="50.46401" lon="3.26752">
        <ele>24.8</ele>
        <time>2008-10-24T22:12:53.618Z</time>
      </trkpt>
      <trkpt lat="50.46368" lon="3.2685">
        <ele>25.7</ele>
        <time>2008-10-24T22:13:01.456Z</time>
      </trkpt>
      <trkpt lat="50.46317" lon="3.27012">
        <ele>27.3</ele>
        <time>2008-10-24T22:13:14.270Z</time>
      </trkpt>
      <trkpt lat="50.46268" lon="3.2721">
        <ele>24.6</ele>
        <time>2008-10-24T22:13:29.310Z</time>
      </trkpt>
      <trkpt lat="50.46233" lon="3.27343">
        <ele>23.6</ele>
        <time>2008-10-24T22:13:39.496Z</time>
      </trkpt>
      <trkpt lat="50.4616" lon="3.27608">
        <ele>24.7</ele>
        <time>2008-10-24T22:13:59.929Z</time>
      </trkpt>
      <trkpt lat="50.46108" lon="3.27796">
        <ele>23.5</ele>
        <time>2008-10-24T22:14:14.474Z</time>
      </trkpt>
      <trkpt lat="50.46083" lon="3.27898">
        <ele>23</ele>
        <time>2008-10-24T22:14:22.160Z</time>
      </trkpt>
      <trkpt lat="50.46056" lon="3.28">
        <ele>23.6</ele>
        <time>2008-10-24T22:14:30.016Z</time>
      </trkpt>
      <trkpt lat="50.4601" lon="3.28183">
        <ele>23</ele>
        <time>2008-10-24T22:14:43.949Z</time>
      </trkpt>
      <trkpt lat="50.45967" lon="3.28346">
        <ele>23.4</ele>
        <time>2008-10-24T22:14:56.445Z</time>
      </trkpt>
      <trkpt lat="50.45952" lon="3.28424">
        <ele>23.7</ele>
        <time>2008-10-24T22:15:02.191Z</time>
      </trkpt>
      <trkpt lat="50.45951" lon="3.2848">
        <ele>24.3</ele>
        <time>2008-10-24T22:15:06.191Z</time>
      </trkpt>
      <trkpt lat="50.45946" lon="3.28562">
        <ele>23.9</ele>
        <time>2008-10-24T22:15:12.013Z</time>
      </trkpt>
      <trkpt lat="50.45933" lon="3.2862">
        <ele>23.3</ele>
        <time>2008-10-24T22:15:16.332Z</time>
      </trkpt>
      <trkpt lat="50.45919" lon="3.28662">
        <ele>23</ele>
        <time>2008-10-24T22:15:19.728Z</time>
      </trkpt>
      <trkpt lat="50.45887" lon="3.2873">
        <ele>23.1</ele>
        <time>2008-10-24T22:15:25.691Z</time>
      </trkpt>
      <trkpt lat="50.45857" lon="3.28894">
        <ele>22</ele>
        <time>2008-10-24T22:15:37.773Z</time>
      </trkpt>
      <trkpt lat="50.45889" lon="3.28894">
        <ele>22</ele>
        <time>2008-10-24T22:15:41.397Z</time>
      </trkpt>
      <trkpt lat="50.45943" lon="3.28871">
        <ele>22</ele>
        <time>2008-10-24T22:15:47.555Z</time>
      </trkpt>
      <trkpt lat="50.45989" lon="3.28845">
        <ele>22</ele>
        <time>2008-10-24T22:15:53.052Z</time>
      </trkpt>
      <trkpt lat="50.46049" lon="3.28806">
        <ele>21.7</ele>
        <time>2008-10-24T22:16:00.220Z</time>
      </trkpt>
      <trkpt lat="50.46229" lon="3.28697">
        <ele>22</ele>
        <time>2008-10-24T22:16:21.653Z</time>
      </trkpt>
      <trkpt lat="50.46246" lon="3.28691">
        <ele>22</ele>
        <time>2008-10-24T22:16:23.618Z</time>
      </trkpt>
      <trkpt lat="50.46365" lon="3.28762">
        <ele>22.5</ele>
        <time>2008-10-24T22:16:37.828Z</time>
      </trkpt>
      <trkpt lat="50.46432" lon="3.28802">
        <ele>23.7</ele>
        <time>2008-10-24T22:16:45.760Z</time>
      </trkpt>
      <trkpt lat="50.46473" lon="3.28822">
        <ele>24</ele>
        <time>2008-10-24T22:16:50.498Z</time>
      </trkpt>
      <trkpt lat="50.4652" lon="3.28853">
        <ele>24</ele>
        <time>2008-10-24T22:16:56.250Z</time>
      </trkpt>
      <trkpt lat="50.46545" lon="3.289">
        <ele>24</ele>
        <time>2008-10-24T22:17:00.520Z</time>
      </trkpt>
      <trkpt lat="50.46575" lon="3.28952">
        <ele>23.6</ele>
        <time>2008-10-24T22:17:05.453Z</time>
      </trkpt>
      <trkpt lat="50.46634" lon="3.29009">
        <ele>24.2</ele>
        <time>2008-10-24T22:17:13.248Z</time>
      </trkpt>
      <trkpt lat="50.46679" lon="3.29038">
        <ele>25.3</ele>
        <time>2008-10-24T22:17:18.579Z</time>
      </trkpt>
      <trkpt lat="50.46732" lon="3.2908">
        <ele>26.6</ele>
        <time>2008-10-24T22:17:25.231Z</time>
      </trkpt>
      <trkpt lat="50.46816" lon="3.29055">
        <ele>28.3</ele>
        <time>2008-10-24T22:17:34.721Z</time>
      </trkpt>
      <trkpt lat="50.46852" lon="3.29073">
        <ele>29.1</ele>
        <time>2008-10-24T22:17:38.908Z</time>
      </trkpt>
      <trkpt lat="50.46916" lon="3.29118">
        <ele>30.4</ele>
        <time>2008-10-24T22:17:46.766Z</time>
      </trkpt>
      <trkpt lat="50.46953" lon="3.29148">
        <ele>32.2</ele>
        <time>2008-10-24T22:17:51.370Z</time>
      </trkpt>
      <trkpt lat="50.47018" lon="3.29192">
        <ele>34.2</ele>
        <time>2008-10-24T22:17:59.235Z</time>
      </trkpt>
      <trkpt lat="50.4708" lon="3.29196">
        <ele>34.6</ele>
        <time>2008-10-24T22:18:06.066Z</time>
      </trkpt>
      <trkpt lat="50.47122" lon="3.29205">
        <ele>34.3</ele>
        <time>2008-10-24T22:18:10.805Z</time>
      </trkpt>
      <trkpt lat="50.47131" lon="3.29217">
        <ele>34.2</ele>
        <time>2008-10-24T22:18:12.143Z</time>
      </trkpt>
      <trkpt lat="50.47133" lon="3.29245">
        <ele>34</ele>
        <time>2008-10-24T22:18:14.138Z</time>
      </trkpt>
      <trkpt lat="50.47134" lon="3.2932">
        <ele>33.2</ele>
        <time>2008-10-24T22:18:19.425Z</time>
      </trkpt>
      <trkpt lat="50.47151" lon="3.29396">
        <ele>33</ele>
        <time>2008-10-24T22:18:25.157Z</time>
      </trkpt>
      <trkpt lat="50.47176" lon="3.29486">
        <ele>33.3</ele>
        <time>2008-10-24T22:18:32.118Z</time>
      </trkpt>
      <trkpt lat="50.47195" lon="3.29571">
        <ele>34</ele>
        <time>2008-10-24T22:18:38.458Z</time>
      </trkpt>
      <trkpt lat="50.47213" lon="3.29674">
        <ele>34.1</ele>
        <time>2008-10-24T22:18:46.008Z</time>
      </trkpt>
      <trkpt lat="50.47229" lon="3.29725">
        <ele>34.5</ele>
        <time>2008-10-24T22:18:50.107Z</time>
      </trkpt>
      <trkpt lat="50.4726" lon="3.29767">
        <ele>34.9</ele>
        <time>2008-10-24T22:18:54.611Z</time>
      </trkpt>
      <trkpt lat="50.47291" lon="3.298">
        <ele>34.9</ele>
        <time>2008-10-24T22:18:58.788Z</time>
      </trkpt>
      <trkpt lat="50.4733" lon="3.29824">
        <ele>35.1</ele>
        <time>2008-10-24T22:19:03.425Z</time>
      </trkpt>
      <trkpt lat="50.47374" lon="3.29837">
        <ele>35.5</ele>
        <time>2008-10-24T22:19:08.441Z</time>
      </trkpt>
      <trkpt lat="50.47423" lon="3.29839">
        <ele>36</ele>
        <time>2008-10-24T22:19:13.836Z</time>
      </trkpt>
      <trkpt lat="50.47473" lon="3.29875">
        <ele>36</ele>
        <time>2008-10-24T22:19:20.012Z</time>
      </trkpt>
      <trkpt lat="50.47475" lon="3.29889">
        <ele>36</ele>
        <time>2008-10-24T22:19:20.990Z</time>
      </trkpt>
      <trkpt lat="50.47411" lon="3.30056">
        <ele>35</ele>
        <time>2008-10-24T22:19:34.786Z</time>
      </trkpt>
      <trkpt lat="50.47385" lon="3.30111">
        <ele>34.9</ele>
        <time>2008-10-24T22:19:39.682Z</time>
      </trkpt>
      <trkpt lat="50.47351" lon="3.30162">
        <ele>34.3</ele>
        <time>2008-10-24T22:19:44.856Z</time>
      </trkpt>
      <trkpt lat="50.47315" lon="3.30247">
        <ele>34.5</ele>
        <time>2008-10-24T22:19:52.091Z</time>
      </trkpt>
      <trkpt lat="50.473" lon="3.30292">
        <ele>34.6</ele>
        <time>2008-10-24T22:19:55.670Z</time>
      </trkpt>
      <trkpt lat="50.47305" lon="3.30329">
        <ele>35.2</ele>
        <time>2008-10-24T22:19:58.339Z</time>
      </trkpt>
      <trkpt lat="50.47306" lon="3.30353">
        <ele>35</ele>
        <time>2008-10-24T22:20:00.015Z</time>
      </trkpt>
      <trkpt lat="50.47332" lon="3.30408">
        <ele>35.2</ele>
        <time>2008-10-24T22:20:04.900Z</time>
      </trkpt>
      <trkpt lat="50.47371" lon="3.30466">
        <ele>33.5</ele>
        <time>2008-10-24T22:20:10.899Z</time>
      </trkpt>
      <trkpt lat="50.47404" lon="3.305">
        <ele>32.8</ele>
        <time>2008-10-24T22:20:15.261Z</time>
      </trkpt>
      <trkpt lat="50.4744" lon="3.30534">
        <ele>32.7</ele>
        <time>2008-10-24T22:20:19.892Z</time>
      </trkpt>
      <trkpt lat="50.47475" lon="3.30574">
        <ele>32.3</ele>
        <time>2008-10-24T22:20:24.747Z</time>
      </trkpt>
      <trkpt lat="50.47502" lon="3.30605">
        <ele>32.3</ele>
        <time>2008-10-24T22:20:28.431Z</time>
      </trkpt>
      <trkpt lat="50.4753" lon="3.30626">
        <ele>33.2</ele>
        <time>2008-10-24T22:20:31.890Z</time>
      </trkpt>
      <trkpt lat="50.47565" lon="3.30643">
        <ele>34.3</ele>
        <time>2008-10-24T22:20:36.029Z</time>
      </trkpt>
      <trkpt lat="50.47603" lon="3.30656">
        <ele>34.9</ele>
        <time>2008-10-24T22:20:40.334Z</time>
      </trkpt>
      <trkpt lat="50.47633" lon="3.30656">
        <ele>35</ele>
        <time>2008-10-24T22:20:43.611Z</time>
      </trkpt>
      <trkpt lat="50.47662" lon="3.30676">
        <ele>34.9</ele>
        <time>2008-10-24T22:20:47.176Z</time>
      </trkpt>
      <trkpt lat="50.47658" lon="3.30737">
        <ele>34.2</ele>
        <time>2008-10-24T22:20:51.515Z</time>
      </trkpt>
      <trkpt lat="50.47643" lon="3.30815">
        <ele>33.2</ele>
        <time>2008-10-24T22:20:57.316Z</time>
      </trkpt>
      <trkpt lat="50.47619" lon="3.30894">
        <ele>32.7</ele>
        <time>2008-10-24T22:21:03.529Z</time>
      </trkpt>
      <trkpt lat="50.47579" lon="3.30949">
        <ele>32.5</ele>
        <time>2008-10-24T22:21:09.456Z</time>
      </trkpt>
      <trkpt lat="50.47555" lon="3.30996">
        <ele>31.1</ele>
        <time>2008-10-24T22:21:13.667Z</time>
      </trkpt>
      <trkpt lat="50.47508" lon="3.31105">
        <ele>28.9</ele>
        <time>2008-10-24T22:21:22.997Z</time>
      </trkpt>
      <trkpt lat="50.475" lon="3.31181">
        <ele>28</ele>
        <time>2008-10-24T22:21:28.425Z</time>
      </trkpt>
      <trkpt lat="50.47502" lon="3.31268">
        <ele>28.2</ele>
        <time>2008-10-24T22:21:34.611Z</time>
      </trkpt>
      <trkpt lat="50.47424" lon="3.31474">
        <ele>26.4</ele>
        <time>2008-10-24T22:21:51.567Z</time>
      </trkpt>
      <trkpt lat="50.47402" lon="3.31533">
        <ele>25.9</ele>
        <time>2008-10-24T22:21:56.431Z</time>
      </trkpt>
      <trkpt lat="50.47387" lon="3.31587">
        <ele>25.6</ele>
        <time>2008-10-24T22:22:00.614Z</time>
      </trkpt>
      <trkpt lat="50.473" lon="3.31793">
        <ele>25.3</ele>
        <time>2008-10-24T22:22:18.129Z</time>
      </trkpt>
      <trkpt lat="50.47214" lon="3.3187">
        <ele>24.8</ele>
        <time>2008-10-24T22:22:29.074Z</time>
      </trkpt>
      <trkpt lat="50.47141" lon="3.31983">
        <ele>23.4</ele>
        <time>2008-10-24T22:22:40.471Z</time>
      </trkpt>
      <trkpt lat="50.47098" lon="3.32039">
        <ele>23.8</ele>
        <time>2008-10-24T22:22:46.695Z</time>
      </trkpt>
      <trkpt lat="50.47055" lon="3.32065">
        <ele>23.7</ele>
        <time>2008-10-24T22:22:51.840Z</time>
      </trkpt>
      <trkpt lat="50.46994" lon="3.32069">
        <ele>23</ele>
        <time>2008-10-24T22:22:58.627Z</time>
      </trkpt>
      <trkpt lat="50.46868" lon="3.3216">
        <ele>23.9</ele>
        <time>2008-10-24T22:23:14.108Z</time>
      </trkpt>
      <trkpt lat="50.46781" lon="3.32294">
        <ele>23.2</ele>
        <time>2008-10-24T22:23:27.626Z</time>
      </trkpt>
      <trkpt lat="50.4672" lon="3.32363">
        <ele>22.4</ele>
        <time>2008-10-24T22:23:35.978Z</time>
      </trkpt>
      <trkpt lat="50.46687" lon="3.32417">
        <ele>22</ele>
        <time>2008-10-24T22:23:41.295Z</time>
      </trkpt>
      <trkpt lat="50.46638" lon="3.32467">
        <ele>21.3</ele>
        <time>2008-10-24T22:23:47.792Z</time>
      </trkpt>
      <trkpt lat="50.46614" lon="3.32494">
        <ele>21</ele>
        <time>2008-10-24T22:23:51.027Z</time>
      </trkpt>
      <trkpt lat="50.46588" lon="3.32527">
        <ele>21</ele>
        <time>2008-10-24T22:23:54.708Z</time>
      </trkpt>
      <trkpt lat="50.46596" lon="3.3254">
        <ele>21</ele>
        <time>2008-10-24T22:23:55.984Z</time>
      </trkpt>
      <trkpt lat="50.46602" lon="3.3256">
        <ele>21</ele>
        <time>2008-10-24T22:23:57.555Z</time>
      </trkpt>
      <trkpt lat="50.46619" lon="3.32598">
        <ele>21</ele>
        <time>2008-10-24T22:24:00.825Z</time>
      </trkpt>
      <trkpt lat="50.46632" lon="3.32624">
        <ele>20.9</ele>
        <time>2008-10-24T22:24:03.143Z</time>
      </trkpt>
      <trkpt lat="50.46647" lon="3.32649">
        <ele>20.6</ele>
        <time>2008-10-24T22:24:05.630Z</time>
      </trkpt>
      <trkpt lat="50.46656" lon="3.32666">
        <ele>20.3</ele>
        <time>2008-10-24T22:24:07.221Z</time>
      </trkpt>
      <trkpt lat="50.46693" lon="3.32696">
        <ele>20.3</ele>
        <time>2008-10-24T22:24:11.846Z</time>
      </trkpt>
      <trkpt lat="50.46727" lon="3.3272">
        <ele>20.7</ele>
        <time>2008-10-24T22:24:15.944Z</time>
      </trkpt>
      <trkpt lat="50.46776" lon="3.32756">
        <ele>20.7</ele>
        <time>2008-10-24T22:24:21.944Z</time>
      </trkpt>
      <trkpt lat="50.46825" lon="3.32794">
        <ele>20.5</ele>
        <time>2008-10-24T22:24:28.088Z</time>
      </trkpt>
      <trkpt lat="50.46881" lon="3.32834">
        <ele>22.7</ele>
        <time>2008-10-24T22:24:34.854Z</time>
      </trkpt>
      <trkpt lat="50.46903" lon="3.32851">
        <ele>23.3</ele>
        <time>2008-10-24T22:24:37.564Z</time>
      </trkpt>
      <trkpt lat="50.46934" lon="3.32866">
        <ele>23.7</ele>
        <time>2008-10-24T22:24:41.187Z</time>
      </trkpt>
      <trkpt lat="50.4695" lon="3.32875">
        <ele>23.7</ele>
        <time>2008-10-24T22:24:43.112Z</time>
      </trkpt>
      <trkpt lat="50.47022" lon="3.32887">
        <ele>23.5</ele>
        <time>2008-10-24T22:24:51.097Z</time>
      </trkpt>
      <trkpt lat="50.47083" lon="3.32904">
        <ele>22</ele>
        <time>2008-10-24T22:24:58.065Z</time>
      </trkpt>
      <trkpt lat="50.47153" lon="3.32915">
        <ele>22.8</ele>
        <time>2008-10-24T22:25:05.829Z</time>
      </trkpt>
      <trkpt lat="50.47172" lon="3.32921">
        <ele>23</ele>
        <time>2008-10-24T22:25:07.978Z</time>
      </trkpt>
      <trkpt lat="50.47187" lon="3.32932">
        <ele>22.9</ele>
        <time>2008-10-24T22:25:09.855Z</time>
      </trkpt>
      <trkpt lat="50.47206" lon="3.32947">
        <ele>22.8</ele>
        <time>2008-10-24T22:25:12.260Z</time>
      </trkpt>
      <trkpt lat="50.47219" lon="3.32963">
        <ele>22.8</ele>
        <time>2008-10-24T22:25:14.024Z</time>
      </trkpt>
      <trkpt lat="50.47242" lon="3.32996">
        <ele>22.9</ele>
        <time>2008-10-24T22:25:17.523Z</time>
      </trkpt>
      <trkpt lat="50.47252" lon="3.33011">
        <ele>23</ele>
        <time>2008-10-24T22:25:19.071Z</time>
      </trkpt>
      <trkpt lat="50.47302" lon="3.33093">
        <ele>24.2</ele>
        <time>2008-10-24T22:25:27.140Z</time>
      </trkpt>
      <trkpt lat="50.4732" lon="3.33116">
        <ele>24.4</ele>
        <time>2008-10-24T22:25:29.681Z</time>
      </trkpt>
      <trkpt lat="50.47339" lon="3.33139">
        <ele>24.4</ele>
        <time>2008-10-24T22:25:32.356Z</time>
      </trkpt>
      <trkpt lat="50.47389" lon="3.3319">
        <ele>25.3</ele>
        <time>2008-10-24T22:25:38.992Z</time>
      </trkpt>
      <trkpt lat="50.47406" lon="3.33204">
        <ele>25.7</ele>
        <time>2008-10-24T22:25:41.109Z</time>
      </trkpt>
      <trkpt lat="50.47422" lon="3.3322">
        <ele>25.9</ele>
        <time>2008-10-24T22:25:43.213Z</time>
      </trkpt>
      <trkpt lat="50.47434" lon="3.33224">
        <ele>25.8</ele>
        <time>2008-10-24T22:25:44.516Z</time>
      </trkpt>
      <trkpt lat="50.4744" lon="3.33223">
        <ele>25.7</ele>
        <time>2008-10-24T22:25:45.286Z</time>
      </trkpt>
      <trkpt lat="50.47445" lon="3.33212">
        <ele>25.7</ele>
        <time>2008-10-24T22:25:46.179Z</time>
      </trkpt>
      <trkpt lat="50.4745" lon="3.3321">
        <ele>25.6</ele>
        <time>2008-10-24T22:25:46.776Z</time>
      </trkpt>
      <trkpt lat="50.47461" lon="3.3323">
        <ele>25.5</ele>
        <time>2008-10-24T22:25:48.645Z</time>
      </trkpt>
      <trkpt lat="50.47471" lon="3.33241">
        <ele>25.3</ele>
        <time>2008-10-24T22:25:50.036Z</time>
      </trkpt>
      <trkpt lat="50.47478" lon="3.33252">
        <ele>25.3</ele>
        <time>2008-10-24T22:25:51.165Z</time>
      </trkpt>
      <trkpt lat="50.47493" lon="3.33266">
        <ele>25.2</ele>
        <time>2008-10-24T22:25:53.039Z</time>
      </trkpt>
      <trkpt lat="50.47507" lon="3.33279">
        <ele>25.4</ele>
        <time>2008-10-24T22:25:54.834Z</time>
      </trkpt>
      <trkpt lat="50.47532" lon="3.33296">
        <ele>25.5</ele>
        <time>2008-10-24T22:25:57.936Z</time>
      </trkpt>
      <trkpt lat="50.47561" lon="3.3332">
        <ele>25.3</ele>
        <time>2008-10-24T22:26:01.566Z</time>
      </trkpt>
      <trkpt lat="50.47589" lon="3.33339">
        <ele>25.1</ele>
        <time>2008-10-24T22:26:04.915Z</time>
      </trkpt>
      <trkpt lat="50.47617" lon="3.33365">
        <ele>25.2</ele>
        <time>2008-10-24T22:26:08.576Z</time>
      </trkpt>
      <trkpt lat="50.47657" lon="3.33401">
        <ele>25.1</ele>
        <time>2008-10-24T22:26:13.701Z</time>
      </trkpt>
      <trkpt lat="50.47698" lon="3.33421">
        <ele>25.4</ele>
        <time>2008-10-24T22:26:18.400Z</time>
      </trkpt>
      <trkpt lat="50.47708" lon="3.33436">
        <ele>25.6</ele>
        <time>2008-10-24T22:26:19.990Z</time>
      </trkpt>
      <trkpt lat="50.47718" lon="3.33442">
        <ele>25.7</ele>
        <time>2008-10-24T22:26:21.228Z</time>
      </trkpt>
      <trkpt lat="50.47713" lon="3.33469">
        <ele>25.8</ele>
        <time>2008-10-24T22:26:23.237Z</time>
      </trkpt>
      <trkpt lat="50.47703" lon="3.33515">
        <ele>26.1</ele>
        <time>2008-10-24T22:26:26.676Z</time>
      </trkpt>
      <trkpt lat="50.47681" lon="3.33565">
        <ele>26.6</ele>
        <time>2008-10-24T22:26:30.993Z</time>
      </trkpt>
      <trkpt lat="50.47622" lon="3.33706">
        <ele>26.5</ele>
        <time>2008-10-24T22:26:42.904Z</time>
      </trkpt>
      <trkpt lat="50.47563" lon="3.33843">
        <ele>24.2</ele>
        <time>2008-10-24T22:26:54.625Z</time>
      </trkpt>
      <trkpt lat="50.47531" lon="3.33902">
        <ele>24.1</ele>
        <time>2008-10-24T22:27:00.090Z</time>
      </trkpt>
      <trkpt lat="50.47492" lon="3.33962">
        <ele>23.5</ele>
        <time>2008-10-24T22:27:06.206Z</time>
      </trkpt>
      <trkpt lat="50.47387" lon="3.3412">
        <ele>22.5</ele>
        <time>2008-10-24T22:27:22.397Z</time>
      </trkpt>
      <trkpt lat="50.47329" lon="3.3425">
        <ele>21</ele>
        <time>2008-10-24T22:27:33.627Z</time>
      </trkpt>
      <trkpt lat="50.47266" lon="3.34413">
        <ele>20.8</ele>
        <time>2008-10-24T22:27:47.118Z</time>
      </trkpt>
      <trkpt lat="50.47224" lon="3.34519">
        <ele>20.1</ele>
        <time>2008-10-24T22:27:55.951Z</time>
      </trkpt>
      <trkpt lat="50.47191" lon="3.34559">
        <ele>20.2</ele>
        <time>2008-10-24T22:28:00.529Z</time>
      </trkpt>
      <trkpt lat="50.47162" lon="3.34604">
        <ele>20.1</ele>
        <time>2008-10-24T22:28:05.122Z</time>
      </trkpt>
      <trkpt lat="50.4706" lon="3.34727">
        <ele>18.7</ele>
        <time>2008-10-24T22:28:19.353Z</time>
      </trkpt>
      <trkpt lat="50.4704" lon="3.3475">
        <ele>18.5</ele>
        <time>2008-10-24T22:28:22.185Z</time>
      </trkpt>
      <trkpt lat="50.47035" lon="3.34756">
        <ele>18.4</ele>
        <time>2008-10-24T22:28:22.875Z</time>
      </trkpt>
      <trkpt lat="50.47029" lon="3.34762">
        <ele>18.3</ele>
        <time>2008-10-24T22:28:23.673Z</time>
      </trkpt>
      <trkpt lat="50.47019" lon="3.34773">
        <ele>18.2</ele>
        <time>2008-10-24T22:28:25.028Z</time>
      </trkpt>
      <trkpt lat="50.46905" lon="3.34887">
        <ele>19</ele>
        <time>2008-10-24T22:28:40.031Z</time>
      </trkpt>
      <trkpt lat="50.46915" lon="3.34889">
        <ele>19</ele>
        <time>2008-10-24T22:28:41.143Z</time>
      </trkpt>
      <trkpt lat="50.4697" lon="3.34838">
        <ele>18.3</ele>
        <time>2008-10-24T22:28:48.288Z</time>
      </trkpt>
      <trkpt lat="50.4705" lon="3.34746">
        <ele>18.6</ele>
        <time>2008-10-24T22:28:59.271Z</time>
      </trkpt>
      <trkpt lat="50.47102" lon="3.34681">
        <ele>19.5</ele>
        <time>2008-10-24T22:29:06.641Z</time>
      </trkpt>
      <trkpt lat="50.47138" lon="3.34647">
        <ele>20.1</ele>
        <time>2008-10-24T22:29:11.333Z</time>
      </trkpt>
      <trkpt lat="50.47169" lon="3.34604">
        <ele>20.3</ele>
        <time>2008-10-24T22:29:15.969Z</time>
      </trkpt>
      <trkpt lat="50.47229" lon="3.3452">
        <ele>20.2</ele>
        <time>2008-10-24T22:29:24.889Z</time>
      </trkpt>
      <trkpt lat="50.47297" lon="3.34351">
        <ele>20.4</ele>
        <time>2008-10-24T22:29:39.028Z</time>
      </trkpt>
      <trkpt lat="50.47339" lon="3.34238">
        <ele>21.1</ele>
        <time>2008-10-24T22:29:48.323Z</time>
      </trkpt>
      <trkpt lat="50.47413" lon="3.34093">
        <ele>23</ele>
        <time>2008-10-24T22:30:01.464Z</time>
      </trkpt>
      <trkpt lat="50.47504" lon="3.33961">
        <ele>23.5</ele>
        <time>2008-10-24T22:30:15.217Z</time>
      </trkpt>
      <trkpt lat="50.47572" lon="3.3385">
        <ele>24.1</ele>
        <time>2008-10-24T22:30:26.109Z</time>
      </trkpt>
      <trkpt lat="50.47637" lon="3.33952">
        <ele>24.5</ele>
        <time>2008-10-24T22:30:36.354Z</time>
      </trkpt>
      <trkpt lat="50.47688" lon="3.34051">
        <ele>24.5</ele>
        <time>2008-10-24T22:30:45.360Z</time>
      </trkpt>
      <trkpt lat="50.47738" lon="3.34127">
        <ele>24.3</ele>
        <time>2008-10-24T22:30:53.110Z</time>
      </trkpt>
      <trkpt lat="50.47849" lon="3.3426">
        <ele>24</ele>
        <time>2008-10-24T22:31:08.622Z</time>
      </trkpt>
      <trkpt lat="50.47963" lon="3.34437">
        <ele>23.9</ele>
        <time>2008-10-24T22:31:26.414Z</time>
      </trkpt>
      <trkpt lat="50.48014" lon="3.34343">
        <ele>26.1</ele>
        <time>2008-10-24T22:31:35.159Z</time>
      </trkpt>
      <trkpt lat="50.48067" lon="3.34227">
        <ele>25.8</ele>
        <time>2008-10-24T22:31:45.222Z</time>
      </trkpt>
      <trkpt lat="50.48136" lon="3.34119">
        <ele>26.8</ele>
        <time>2008-10-24T22:31:56.116Z</time>
      </trkpt>
      <trkpt lat="50.48179" lon="3.34153">
        <ele>26.7</ele>
        <time>2008-10-24T22:32:01.477Z</time>
      </trkpt>
      <trkpt lat="50.48287" lon="3.34291">
        <ele>26.2</ele>
        <time>2008-10-24T22:32:16.932Z</time>
      </trkpt>
      <trkpt lat="50.48287" lon="3.34349">
        <ele>26.4</ele>
        <time>2008-10-24T22:32:21.034Z</time>
      </trkpt>
      <trkpt lat="50.48243" lon="3.34433">
        <ele>26</ele>
        <time>2008-10-24T22:32:28.704Z</time>
      </trkpt>
      <trkpt lat="50.48277" lon="3.34501">
        <ele>26</ele>
        <time>2008-10-24T22:32:34.797Z</time>
      </trkpt>
      <trkpt lat="50.48302" lon="3.34593">
        <ele>25.9</ele>
        <time>2008-10-24T22:32:41.848Z</time>
      </trkpt>
      <trkpt lat="50.48315" lon="3.34709">
        <ele>25.2</ele>
        <time>2008-10-24T22:32:50.196Z</time>
      </trkpt>
      <trkpt lat="50.48315" lon="3.34803">
        <ele>25.1</ele>
        <time>2008-10-24T22:32:56.862Z</time>
      </trkpt>
      <trkpt lat="50.48301" lon="3.3491">
        <ele>25</ele>
        <time>2008-10-24T22:33:04.608Z</time>
      </trkpt>
      <trkpt lat="50.48279" lon="3.34977">
        <ele>25</ele>
        <time>2008-10-24T22:33:09.936Z</time>
      </trkpt>
      <trkpt lat="50.48292" lon="3.35022">
        <ele>25</ele>
        <time>2008-10-24T22:33:13.412Z</time>
      </trkpt>
      <trkpt lat="50.48341" lon="3.35167">
        <ele>26</ele>
        <time>2008-10-24T22:33:25.022Z</time>
      </trkpt>
      <trkpt lat="50.48383" lon="3.35267">
        <ele>25.9</ele>
        <time>2008-10-24T22:33:33.494Z</time>
      </trkpt>
      <trkpt lat="50.48445" lon="3.35386">
        <ele>26</ele>
        <time>2008-10-24T22:33:44.406Z</time>
      </trkpt>
      <trkpt lat="50.485" lon="3.35437">
        <ele>26</ele>
        <time>2008-10-24T22:33:51.520Z</time>
      </trkpt>
      <trkpt lat="50.48587" lon="3.35422">
        <ele>26</ele>
        <time>2008-10-24T22:34:01.224Z</time>
      </trkpt>
      <trkpt lat="50.48654" lon="3.35347">
        <ele>26.9</ele>
        <time>2008-10-24T22:34:10.404Z</time>
      </trkpt>
      <trkpt lat="50.48732" lon="3.35299">
        <ele>26.9</ele>
        <time>2008-10-24T22:34:19.691Z</time>
      </trkpt>
      <trkpt lat="50.48788" lon="3.35268">
        <ele>26.9</ele>
        <time>2008-10-24T22:34:26.300Z</time>
      </trkpt>
      <trkpt lat="50.4884" lon="3.35227">
        <ele>27</ele>
        <time>2008-10-24T22:34:32.715Z</time>
      </trkpt>
      <trkpt lat="50.48892" lon="3.3516">
        <ele>27.8</ele>
        <time>2008-10-24T22:34:40.246Z</time>
      </trkpt>
      <trkpt lat="50.48909" lon="3.35172">
        <ele>27.9</ele>
        <time>2008-10-24T22:34:42.295Z</time>
      </trkpt>
      <trkpt lat="50.48927" lon="3.35257">
        <ele>26.9</ele>
        <time>2008-10-24T22:34:48.627Z</time>
      </trkpt>
      <trkpt lat="50.4894" lon="3.35341">
        <ele>26.5</ele>
        <time>2008-10-24T22:34:54.716Z</time>
      </trkpt>
      <trkpt lat="50.48941" lon="3.35413">
        <ele>26.3</ele>
        <time>2008-10-24T22:34:59.800Z</time>
      </trkpt>
      <trkpt lat="50.48965" lon="3.35534">
        <ele>26.2</ele>
        <time>2008-10-24T22:35:08.825Z</time>
      </trkpt>
      <trkpt lat="50.48983" lon="3.35631">
        <ele>26.3</ele>
        <time>2008-10-24T22:35:15.979Z</time>
      </trkpt>
      <trkpt lat="50.48989" lon="3.35727">
        <ele>25.5</ele>
        <time>2008-10-24T22:35:22.761Z</time>
      </trkpt>
      <trkpt lat="50.49003" lon="3.35769">
        <ele>24.7</ele>
        <time>2008-10-24T22:35:26.105Z</time>
      </trkpt>
      <trkpt lat="50.49063" lon="3.35962">
        <ele>23.1</ele>
        <time>2008-10-24T22:35:41.283Z</time>
      </trkpt>
      <trkpt lat="50.49111" lon="3.36007">
        <ele>23.3</ele>
        <time>2008-10-24T22:35:47.487Z</time>
      </trkpt>
      <trkpt lat="50.49142" lon="3.36065">
        <ele>23.7</ele>
        <time>2008-10-24T22:35:52.861Z</time>
      </trkpt>
      <trkpt lat="50.49161" lon="3.3612">
        <ele>24.4</ele>
        <time>2008-10-24T22:35:57.317Z</time>
      </trkpt>
      <trkpt lat="50.49188" lon="3.36195">
        <ele>25</ele>
        <time>2008-10-24T22:36:03.407Z</time>
      </trkpt>
      <trkpt lat="50.49225" lon="3.36283">
        <ele>24.6</ele>
        <time>2008-10-24T22:36:10.893Z</time>
      </trkpt>
      <trkpt lat="50.49299" lon="3.3623">
        <ele>24.4</ele>
        <time>2008-10-24T22:36:19.962Z</time>
      </trkpt>
      <trkpt lat="50.49383" lon="3.36204">
        <ele>23.1</ele>
        <time>2008-10-24T22:36:29.509Z</time>
      </trkpt>
      <trkpt lat="50.49419" lon="3.3617">
        <ele>22.9</ele>
        <time>2008-10-24T22:36:34.125Z</time>
      </trkpt>
      <trkpt lat="50.4944" lon="3.36151">
        <ele>22.5</ele>
        <time>2008-10-24T22:36:36.871Z</time>
      </trkpt>
      <trkpt lat="50.49519" lon="3.36124">
        <ele>21.3</ele>
        <time>2008-10-24T22:36:45.830Z</time>
      </trkpt>
      <trkpt lat="50.49598" lon="3.3608">
        <ele>21</ele>
        <time>2008-10-24T22:36:55.104Z</time>
      </trkpt>
      <trkpt lat="50.49672" lon="3.3612">
        <ele>20.6</ele>
        <time>2008-10-24T22:37:03.784Z</time>
      </trkpt>
      <trkpt lat="50.49695" lon="3.3614">
        <ele>20.8</ele>
        <time>2008-10-24T22:37:06.764Z</time>
      </trkpt>
      <trkpt lat="50.49724" lon="3.36145">
        <ele>21.3</ele>
        <time>2008-10-24T22:37:10.003Z</time>
      </trkpt>
      <trkpt lat="50.49756" lon="3.36116">
        <ele>21.3</ele>
        <time>2008-10-24T22:37:14.102Z</time>
      </trkpt>
      <trkpt lat="50.49864" lon="3.36037">
        <ele>20.2</ele>
        <time>2008-10-24T22:37:27.405Z</time>
      </trkpt>
      <trkpt lat="50.49898" lon="3.36002">
        <ele>20.8</ele>
        <time>2008-10-24T22:37:31.902Z</time>
      </trkpt>
      <trkpt lat="50.49957" lon="3.35909">
        <ele>20.5</ele>
        <time>2008-10-24T22:37:41.230Z</time>
      </trkpt>
      <trkpt lat="50.50103" lon="3.35792">
        <ele>20.4</ele>
        <time>2008-10-24T22:37:59.455Z</time>
      </trkpt>
      <trkpt lat="50.50248" lon="3.35605">
        <ele>22.8</ele>
        <time>2008-10-24T22:38:20.262Z</time>
      </trkpt>
      <trkpt lat="50.50187" lon="3.35541">
        <ele>23.1</ele>
        <time>2008-10-24T22:38:28.368Z</time>
      </trkpt>
      <trkpt lat="50.50165" lon="3.35476">
        <ele>23.3</ele>
        <time>2008-10-24T22:38:33.616Z</time>
      </trkpt>
      <trkpt lat="50.50044" lon="3.35159">
        <ele>21.6</ele>
        <time>2008-10-24T22:38:59.786Z</time>
      </trkpt>
      <trkpt lat="50.50029" lon="3.35142">
        <ele>21.5</ele>
        <time>2008-10-24T22:39:01.807Z</time>
      </trkpt>
      <trkpt lat="50.49977" lon="3.35133">
        <ele>21.4</ele>
        <time>2008-10-24T22:39:07.556Z</time>
      </trkpt>
      <trkpt lat="50.49954" lon="3.35101">
        <ele>21.8</ele>
        <time>2008-10-24T22:39:10.955Z</time>
      </trkpt>
      <trkpt lat="50.49929" lon="3.34973">
        <ele>23.2</ele>
        <time>2008-10-24T22:39:20.464Z</time>
      </trkpt>
      <trkpt lat="50.4992" lon="3.34873">
        <ele>23.9</ele>
        <time>2008-10-24T22:39:27.563Z</time>
      </trkpt>
      <trkpt lat="50.4987" lon="3.34755">
        <ele>23.1</ele>
        <time>2008-10-24T22:39:37.578Z</time>
      </trkpt>
      <trkpt lat="50.49914" lon="3.34506">
        <ele>20.1</ele>
        <time>2008-10-24T22:39:55.889Z</time>
      </trkpt>
      <trkpt lat="50.49915" lon="3.34486">
        <ele>20.2</ele>
        <time>2008-10-24T22:39:57.293Z</time>
      </trkpt>
      <trkpt lat="50.49812" lon="3.34396">
        <ele>23.5</ele>
        <time>2008-10-24T22:40:10.411Z</time>
      </trkpt>
      <trkpt lat="50.49747" lon="3.34318">
        <ele>24.8</ele>
        <time>2008-10-24T22:40:19.530Z</time>
      </trkpt>
      <trkpt lat="50.49709" lon="3.34296">
        <ele>25</ele>
        <time>2008-10-24T22:40:24.067Z</time>
      </trkpt>
      <trkpt lat="50.49875" lon="3.34097">
        <ele>23.4</ele>
        <time>2008-10-24T22:40:47.276Z</time>
      </trkpt>
      <trkpt lat="50.50195" lon="3.33741">
        <ele>24.7</ele>
        <time>2008-10-24T22:41:30.891Z</time>
      </trkpt>
      <trkpt lat="50.50406" lon="3.33475">
        <ele>25.3</ele>
        <time>2008-10-24T22:42:00.984Z</time>
      </trkpt>
      <trkpt lat="50.50378" lon="3.33294">
        <ele>26.5</ele>
        <time>2008-10-24T22:42:14.136Z</time>
      </trkpt>
      <trkpt lat="50.50294" lon="3.33011">
        <ele>27</ele>
        <time>2008-10-24T22:42:36.244Z</time>
      </trkpt>
      <trkpt lat="50.50296" lon="3.32876">
        <ele>28.3</ele>
        <time>2008-10-24T22:42:45.767Z</time>
      </trkpt>
      <trkpt lat="50.50285" lon="3.32716">
        <ele>29</ele>
        <time>2008-10-24T22:42:57.170Z</time>
      </trkpt>
      <trkpt lat="50.50289" lon="3.32667">
        <ele>29</ele>
        <time>2008-10-24T22:43:00.696Z</time>
      </trkpt>
      <trkpt lat="50.50278" lon="3.32639">
        <ele>28.7</ele>
        <time>2008-10-24T22:43:03.019Z</time>
      </trkpt>
      <trkpt lat="50.50122" lon="3.32456">
        <ele>29.8</ele>
        <time>2008-10-24T22:43:24.675Z</time>
      </trkpt>
      <trkpt lat="50.50183" lon="3.3228">
        <ele>29.5</ele>
        <time>2008-10-24T22:43:38.915Z</time>
      </trkpt>
      <trkpt lat="50.50177" lon="3.32153">
        <ele>30</ele>
        <time>2008-10-24T22:43:47.878Z</time>
      </trkpt>
      <trkpt lat="50.50183" lon="3.31946">
        <ele>30.7</ele>
        <time>2008-10-24T22:44:02.531Z</time>
      </trkpt>
      <trkpt lat="50.50267" lon="3.31729">
        <ele>29.6</ele>
        <time>2008-10-24T22:44:20.547Z</time>
      </trkpt>
      <trkpt lat="50.50267" lon="3.31696">
        <ele>29.6</ele>
        <time>2008-10-24T22:44:22.830Z</time>
      </trkpt>
      <trkpt lat="50.50049" lon="3.31482">
        <ele>31.3</ele>
        <time>2008-10-24T22:44:51.459Z</time>
      </trkpt>
      <trkpt lat="50.49865" lon="3.31301">
        <ele>33.7</ele>
        <time>2008-10-24T22:45:15.513Z</time>
      </trkpt>
      <trkpt lat="50.49548" lon="3.30773">
        <ele>34.6</ele>
        <time>2008-10-24T22:46:06.898Z</time>
      </trkpt>
      <trkpt lat="50.49758" lon="3.30227">
        <ele>37.8</ele>
        <time>2008-10-24T22:46:52.050Z</time>
      </trkpt>
      <trkpt lat="50.49738" lon="3.30229">
        <ele>38.1</ele>
        <time>2008-10-24T22:46:54.329Z</time>
      </trkpt>
      <trkpt lat="50.4972" lon="3.30209">
        <ele>38.4</ele>
        <time>2008-10-24T22:46:56.775Z</time>
      </trkpt>
      <trkpt lat="50.49708" lon="3.30182">
        <ele>38.5</ele>
        <time>2008-10-24T22:46:59.136Z</time>
      </trkpt>
      <trkpt lat="50.4966" lon="3.30016">
        <ele>38.1</ele>
        <time>2008-10-24T22:47:11.945Z</time>
      </trkpt>
      <trkpt lat="50.49623" lon="3.29926">
        <ele>38.2</ele>
        <time>2008-10-24T22:47:19.604Z</time>
      </trkpt>
      <trkpt lat="50.49595" lon="3.29875">
        <ele>38.7</ele>
        <time>2008-10-24T22:47:24.361Z</time>
      </trkpt>
      <trkpt lat="50.49547" lon="3.29832">
        <ele>40.3</ele>
        <time>2008-10-24T22:47:30.433Z</time>
      </trkpt>
      <trkpt lat="50.49502" lon="3.29762">
        <ele>41.1</ele>
        <time>2008-10-24T22:47:37.554Z</time>
      </trkpt>
      <trkpt lat="50.49422" lon="3.29584">
        <ele>40.9</ele>
        <time>2008-10-24T22:47:52.908Z</time>
      </trkpt>
      <trkpt lat="50.49313" lon="3.294">
        <ele>41.6</ele>
        <time>2008-10-24T22:48:10.757Z</time>
      </trkpt>
      <trkpt lat="50.49173" lon="3.29177">
        <ele>41</ele>
        <time>2008-10-24T22:48:32.920Z</time>
      </trkpt>
      <trkpt lat="50.49225" lon="3.2894">
        <ele>41.5</ele>
        <time>2008-10-24T22:48:50.639Z</time>
      </trkpt>
      <trkpt lat="50.49209" lon="3.2888">
        <ele>42</ele>
        <time>2008-10-24T22:48:55.310Z</time>
      </trkpt>
      <trkpt lat="50.49107" lon="3.28804">
        <ele>43.4</ele>
        <time>2008-10-24T22:49:07.842Z</time>
      </trkpt>
      <trkpt lat="50.49132" lon="3.28708">
        <ele>44</ele>
        <time>2008-10-24T22:49:15.228Z</time>
      </trkpt>
      <trkpt lat="50.49163" lon="3.28616">
        <ele>44.6</ele>
        <time>2008-10-24T22:49:22.514Z</time>
      </trkpt>
      <trkpt lat="50.49183" lon="3.28495">
        <ele>44.4</ele>
        <time>2008-10-24T22:49:31.366Z</time>
      </trkpt>
      <trkpt lat="50.49195" lon="3.28334">
        <ele>43</ele>
        <time>2008-10-24T22:49:42.862Z</time>
      </trkpt>
      <trkpt lat="50.4915" lon="3.27832">
        <ele>43.4</ele>
        <time>2008-10-24T22:50:18.696Z</time>
      </trkpt>
      <trkpt lat="50.49098" lon="3.27731">
        <ele>45.9</ele>
        <time>2008-10-24T22:50:27.859Z</time>
      </trkpt>
      <trkpt lat="50.48997" lon="3.27559">
        <ele>46.9</ele>
        <time>2008-10-24T22:50:44.493Z</time>
      </trkpt>
      <trkpt lat="50.48971" lon="3.27472">
        <ele>46.4</ele>
        <time>2008-10-24T22:50:51.259Z</time>
      </trkpt>
      <trkpt lat="50.48951" lon="3.27399">
        <ele>46.4</ele>
        <time>2008-10-24T22:50:56.893Z</time>
      </trkpt>
      <trkpt lat="50.48942" lon="3.27348">
        <ele>46.3</ele>
        <time>2008-10-24T22:51:00.648Z</time>
      </trkpt>
      <trkpt lat="50.48946" lon="3.2731">
        <ele>46.4</ele>
        <time>2008-10-24T22:51:03.372Z</time>
      </trkpt>
      <trkpt lat="50.48924" lon="3.27289">
        <ele>46.1</ele>
        <time>2008-10-24T22:51:06.214Z</time>
      </trkpt>
      <trkpt lat="50.48901" lon="3.27229">
        <ele>45.6</ele>
        <time>2008-10-24T22:51:11.207Z</time>
      </trkpt>
      <trkpt lat="50.48854" lon="3.27163">
        <ele>44.4</ele>
        <time>2008-10-24T22:51:18.258Z</time>
      </trkpt>
      <trkpt lat="50.48829" lon="3.27094">
        <ele>43</ele>
        <time>2008-10-24T22:51:23.845Z</time>
      </trkpt>
      <trkpt lat="50.48815" lon="3.26994">
        <ele>42.3</ele>
        <time>2008-10-24T22:51:31.079Z</time>
      </trkpt>
      <trkpt lat="50.48808" lon="3.26938">
        <ele>41.3</ele>
        <time>2008-10-24T22:51:35.122Z</time>
      </trkpt>
      <trkpt lat="50.48807" lon="3.26843">
        <ele>40.2</ele>
        <time>2008-10-24T22:51:41.810Z</time>
      </trkpt>
      <trkpt lat="50.48769" lon="3.26607">
        <ele>37</ele>
        <time>2008-10-24T22:51:59.085Z</time>
      </trkpt>
      <trkpt lat="50.48701" lon="3.26472">
        <ele>35.4</ele>
        <time>2008-10-24T22:52:11.193Z</time>
      </trkpt>
      <trkpt lat="50.48687" lon="3.26407">
        <ele>35.2</ele>
        <time>2008-10-24T22:52:16.052Z</time>
      </trkpt>
      <trkpt lat="50.48667" lon="3.26237">
        <ele>34</ele>
        <time>2008-10-24T22:52:28.281Z</time>
      </trkpt>
      <trkpt lat="50.48707" lon="3.26054">
        <ele>34</ele>
        <time>2008-10-24T22:52:42.029Z</time>
      </trkpt>
      <trkpt lat="50.48841" lon="3.26194">
        <ele>38.1</ele>
        <time>2008-10-24T22:52:59.954Z</time>
      </trkpt>
      <trkpt lat="50.493" lon="3.26369">
        <ele>44</ele>
        <time>2008-10-24T22:53:52.479Z</time>
      </trkpt>
      <trkpt lat="50.49365" lon="3.26253">
        <ele>44.6</ele>
        <time>2008-10-24T22:54:03.427Z</time>
      </trkpt>
      <trkpt lat="50.49412" lon="3.26171">
        <ele>45</ele>
        <time>2008-10-24T22:54:11.241Z</time>
      </trkpt>
      <trkpt lat="50.49449" lon="3.26052">
        <ele>45.6</ele>
        <time>2008-10-24T22:54:20.582Z</time>
      </trkpt>
      <trkpt lat="50.49501" lon="3.25757">
        <ele>45.9</ele>
        <time>2008-10-24T22:54:42.236Z</time>
      </trkpt>
      <trkpt lat="50.49583" lon="3.25599">
        <ele>46</ele>
        <time>2008-10-24T22:54:56.705Z</time>
      </trkpt>
      <trkpt lat="50.49609" lon="3.25519">
        <ele>46</ele>
        <time>2008-10-24T22:55:03.040Z</time>
      </trkpt>
      <trkpt lat="50.49648" lon="3.25417">
        <ele>47</ele>
        <time>2008-10-24T22:55:11.482Z</time>
      </trkpt>
      <trkpt lat="50.49743" lon="3.25343">
        <ele>47.1</ele>
        <time>2008-10-24T22:55:23.208Z</time>
      </trkpt>
      <trkpt lat="50.49892" lon="3.25084">
        <ele>48</ele>
        <time>2008-10-24T22:55:47.918Z</time>
      </trkpt>
      <trkpt lat="50.49877" lon="3.25021">
        <ele>48.4</ele>
        <time>2008-10-24T22:55:52.642Z</time>
      </trkpt>
      <trkpt lat="50.49857" lon="3.24982">
        <ele>48.4</ele>
        <time>2008-10-24T22:55:56.216Z</time>
      </trkpt>
      <trkpt lat="50.49856" lon="3.24971">
        <ele>48.5</ele>
        <time>2008-10-24T22:55:57.032Z</time>
      </trkpt>
      <trkpt lat="50.49719" lon="3.24861">
        <ele>50</ele>
        <time>2008-10-24T22:56:14.071Z</time>
      </trkpt>
      <trkpt lat="50.49616" lon="3.24588">
        <ele>48</ele>
        <time>2008-10-24T22:56:36.549Z</time>
      </trkpt>
      <trkpt lat="50.49551" lon="3.24416">
        <ele>47</ele>
        <time>2008-10-24T22:56:50.695Z</time>
      </trkpt>
      <trkpt lat="50.49392" lon="3.24272">
        <ele>46.4</ele>
        <time>2008-10-24T22:57:11.061Z</time>
      </trkpt>
      <trkpt lat="50.49387" lon="3.24234">
        <ele>46.7</ele>
        <time>2008-10-24T22:57:13.800Z</time>
      </trkpt>
      <trkpt lat="50.49407" lon="3.24049">
        <ele>44.7</ele>
        <time>2008-10-24T22:57:27.080Z</time>
      </trkpt>
      <trkpt lat="50.49392" lon="3.24019">
        <ele>44.5</ele>
        <time>2008-10-24T22:57:29.727Z</time>
      </trkpt>
      <trkpt lat="50.49341" lon="3.23976">
        <ele>44.6</ele>
        <time>2008-10-24T22:57:36.168Z</time>
      </trkpt>
      <trkpt lat="50.49305" lon="3.23912">
        <ele>44</ele>
        <time>2008-10-24T22:57:42.191Z</time>
      </trkpt>
      <trkpt lat="50.49212" lon="3.23828">
        <ele>43.9</ele>
        <time>2008-10-24T22:57:54.198Z</time>
      </trkpt>
      <trkpt lat="50.49288" lon="3.23731">
        <ele>42.9</ele>
        <time>2008-10-24T22:58:05.057Z</time>
      </trkpt>
      <trkpt lat="50.49316" lon="3.23686">
        <ele>42.8</ele>
        <time>2008-10-24T22:58:09.555Z</time>
      </trkpt>
      <trkpt lat="50.49342" lon="3.236">
        <ele>42.1</ele>
        <time>2008-10-24T22:58:16.243Z</time>
      </trkpt>
      <trkpt lat="50.49373" lon="3.23544">
        <ele>41.3</ele>
        <time>2008-10-24T22:58:21.543Z</time>
      </trkpt>
      <trkpt lat="50.49462" lon="3.23131">
        <ele>39.4</ele>
        <time>2008-10-24T22:58:52.393Z</time>
      </trkpt>
      <trkpt lat="50.49563" lon="3.23188">
        <ele>38.2</ele>
        <time>2008-10-24T22:59:04.325Z</time>
      </trkpt>
      <trkpt lat="50.49599" lon="3.23092">
        <ele>38.9</ele>
        <time>2008-10-24T22:59:12.204Z</time>
      </trkpt>
      <trkpt lat="50.49702" lon="3.22879">
        <ele>40.3</ele>
        <time>2008-10-24T22:59:31.165Z</time>
      </trkpt>
      <trkpt lat="50.49761" lon="3.22775">
        <ele>40.9</ele>
        <time>2008-10-24T22:59:40.994Z</time>
      </trkpt>
      <trkpt lat="50.49786" lon="3.2261">
        <ele>41.1</ele>
        <time>2008-10-24T22:59:52.982Z</time>
      </trkpt>
      <trkpt lat="50.49827" lon="3.22315">
        <ele>40.3</ele>
        <time>2008-10-24T23:00:14.345Z</time>
      </trkpt>
      <trkpt lat="50.50062" lon="3.21895">
        <ele>43</ele>
        <time>2008-10-24T23:00:53.906Z</time>
      </trkpt>
      <trkpt lat="50.50088" lon="3.21825">
        <ele>42.9</ele>
        <time>2008-10-24T23:00:59.620Z</time>
      </trkpt>
      <trkpt lat="50.50162" lon="3.21782">
        <ele>42.4</ele>
        <time>2008-10-24T23:01:08.386Z</time>
      </trkpt>
      <trkpt lat="50.50176" lon="3.21733">
        <ele>42.1</ele>
        <time>2008-10-24T23:01:12.215Z</time>
      </trkpt>
      <trkpt lat="50.50054" lon="3.2154">
        <ele>43.4</ele>
        <time>2008-10-24T23:01:31.395Z</time>
      </trkpt>
      <trkpt lat="50.50048" lon="3.21519">
        <ele>43.4</ele>
        <time>2008-10-24T23:01:33.034Z</time>
      </trkpt>
      <trkpt lat="50.50124" lon="3.2124">
        <ele>46.5</ele>
        <time>2008-10-24T23:01:54.477Z</time>
      </trkpt>
      <trkpt lat="50.50192" lon="3.21013">
        <ele>44</ele>
        <time>2008-10-24T23:02:12.218Z</time>
      </trkpt>
      <trkpt lat="50.50245" lon="3.20851">
        <ele>45.8</ele>
        <time>2008-10-24T23:02:25.142Z</time>
      </trkpt>
      <trkpt lat="50.50248" lon="3.20774">
        <ele>46.7</ele>
        <time>2008-10-24T23:02:30.598Z</time>
      </trkpt>
      <trkpt lat="50.50253" lon="3.20705">
        <ele>47.5</ele>
        <time>2008-10-24T23:02:35.516Z</time>
      </trkpt>
      <trkpt lat="50.50248" lon="3.20507">
        <ele>49.9</ele>
        <time>2008-10-24T23:02:49.519Z</time>
      </trkpt>
      <trkpt lat="50.50239" lon="3.20351">
        <ele>47.2</ele>
        <time>2008-10-24T23:03:00.606Z</time>
      </trkpt>
      <trkpt lat="50.50229" lon="3.20295">
        <ele>47</ele>
        <time>2008-10-24T23:03:04.669Z</time>
      </trkpt>
      <trkpt lat="50.50216" lon="3.20262">
        <ele>47</ele>
        <time>2008-10-24T23:03:07.462Z</time>
      </trkpt>
      <trkpt lat="50.50108" lon="3.20131">
        <ele>46.2</ele>
        <time>2008-10-24T23:03:22.626Z</time>
      </trkpt>
      <trkpt lat="50.50097" lon="3.20101">
        <ele>46</ele>
        <time>2008-10-24T23:03:25.103Z</time>
      </trkpt>
      <trkpt lat="50.50114" lon="3.20055">
        <ele>46</ele>
        <time>2008-10-24T23:03:28.871Z</time>
      </trkpt>
      <trkpt lat="50.50107" lon="3.20017">
        <ele>46</ele>
        <time>2008-10-24T23:03:31.617Z</time>
      </trkpt>
      <trkpt lat="50.50016" lon="3.19806">
        <ele>47.7</ele>
        <time>2008-10-24T23:03:49.677Z</time>
      </trkpt>
      <trkpt lat="50.49881" lon="3.19581">
        <ele>49</ele>
        <time>2008-10-24T23:04:11.519Z</time>
      </trkpt>
      <trkpt lat="50.49795" lon="3.1942">
        <ele>50</ele>
        <time>2008-10-24T23:04:26.399Z</time>
      </trkpt>
      <trkpt lat="50.49775" lon="3.19381">
        <ele>50</ele>
        <time>2008-10-24T23:04:30.012Z</time>
      </trkpt>
      <trkpt lat="50.49736" lon="3.19267">
        <ele>50.8</ele>
        <time>2008-10-24T23:04:39.142Z</time>
      </trkpt>
      <trkpt lat="50.49707" lon="3.19218">
        <ele>51</ele>
        <time>2008-10-24T23:04:43.894Z</time>
      </trkpt>
      <trkpt lat="50.49626" lon="3.19119">
        <ele>51.9</ele>
        <time>2008-10-24T23:04:55.313Z</time>
      </trkpt>
      <trkpt lat="50.49613" lon="3.19087">
        <ele>52.3</ele>
        <time>2008-10-24T23:04:57.966Z</time>
      </trkpt>
      <trkpt lat="50.49522" lon="3.18818">
        <ele>51.2</ele>
        <time>2008-10-24T23:05:19.512Z</time>
      </trkpt>
      <trkpt lat="50.4952" lon="3.18412">
        <ele>50.8</ele>
        <time>2008-10-24T23:05:48.278Z</time>
      </trkpt>
      <trkpt lat="50.4938" lon="3.18082">
        <ele>52.4</ele>
        <time>2008-10-24T23:06:16.344Z</time>
      </trkpt>
      <trkpt lat="50.49376" lon="3.18056">
        <ele>52.5</ele>
        <time>2008-10-24T23:06:18.218Z</time>
      </trkpt>
      <trkpt lat="50.49387" lon="3.17684">
        <ele>49.8</ele>
        <time>2008-10-24T23:06:44.609Z</time>
      </trkpt>
      <trkpt lat="50.49395" lon="3.17417">
        <ele>51.3</ele>
        <time>2008-10-24T23:07:03.466Z</time>
      </trkpt>
      <trkpt lat="50.49444" lon="3.17318">
        <ele>51.4</ele>
        <time>2008-10-24T23:07:12.407Z</time>
      </trkpt>
      <trkpt lat="50.49405" lon="3.17253">
        <ele>50</ele>
        <time>2008-10-24T23:07:18.744Z</time>
      </trkpt>
      <trkpt lat="50.49266" lon="3.16807">
        <ele>50</ele>
        <time>2008-10-24T23:07:53.857Z</time>
      </trkpt>
      <trkpt lat="50.49388" lon="3.16608">
        <ele>47.8</ele>
        <time>2008-10-24T23:08:13.389Z</time>
      </trkpt>
      <trkpt lat="50.49474" lon="3.16433">
        <ele>48.9</ele>
        <time>2008-10-24T23:08:29.032Z</time>
      </trkpt>
      <trkpt lat="50.49557" lon="3.16211">
        <ele>48</ele>
        <time>2008-10-24T23:08:47.264Z</time>
      </trkpt>
      <trkpt lat="50.49661" lon="3.15928">
        <ele>48.9</ele>
        <time>2008-10-24T23:09:10.394Z</time>
      </trkpt>
      <trkpt lat="50.49692" lon="3.15807">
        <ele>47.8</ele>
        <time>2008-10-24T23:09:19.616Z</time>
      </trkpt>
      <trkpt lat="50.49773" lon="3.1564">
        <ele>46.5</ele>
        <time>2008-10-24T23:09:34.463Z</time>
      </trkpt>
      <trkpt lat="50.49864" lon="3.15375">
        <ele>45.6</ele>
        <time>2008-10-24T23:09:55.748Z</time>
      </trkpt>
      <trkpt lat="50.49908" lon="3.1523">
        <ele>45.1</ele>
        <time>2008-10-24T23:10:07.092Z</time>
      </trkpt>
      <trkpt lat="50.49983" lon="3.15081">
        <ele>45.2</ele>
        <time>2008-10-24T23:10:20.555Z</time>
      </trkpt>
      <trkpt lat="50.50063" lon="3.14868">
        <ele>46.2</ele>
        <time>2008-10-24T23:10:38.066Z</time>
      </trkpt>
      <trkpt lat="50.50118" lon="3.1467">
        <ele>47</ele>
        <time>2008-10-24T23:10:53.371Z</time>
      </trkpt>
      <trkpt lat="50.50265" lon="3.14269">
        <ele>50.3</ele>
        <time>2008-10-24T23:11:26.045Z</time>
      </trkpt>
      <trkpt lat="50.5038" lon="3.14024">
        <ele>50.4</ele>
        <time>2008-10-24T23:11:47.572Z</time>
      </trkpt>
      <trkpt lat="50.5049" lon="3.13846">
        <ele>49.1</ele>
        <time>2008-10-24T23:12:05.187Z</time>
      </trkpt>
      <trkpt lat="50.50509" lon="3.13661">
        <ele>49.1</ele>
        <time>2008-10-24T23:12:18.414Z</time>
      </trkpt>
      <trkpt lat="50.50584" lon="3.1331">
        <ele>48.2</ele>
        <time>2008-10-24T23:12:44.658Z</time>
      </trkpt>
      <trkpt lat="50.50608" lon="3.13194">
        <ele>47.8</ele>
        <time>2008-10-24T23:12:53.273Z</time>
      </trkpt>
      <trkpt lat="50.50584" lon="3.13136">
        <ele>49</ele>
        <time>2008-10-24T23:12:58.169Z</time>
      </trkpt>
      <trkpt lat="50.50584" lon="3.1304">
        <ele>49</ele>
        <time>2008-10-24T23:13:04.940Z</time>
      </trkpt>
      <trkpt lat="50.50516" lon="3.12855">
        <ele>49.8</ele>
        <time>2008-10-24T23:13:20.044Z</time>
      </trkpt>
      <trkpt lat="50.50445" lon="3.12533">
        <ele>50.1</ele>
        <time>2008-10-24T23:13:44.199Z</time>
      </trkpt>
      <trkpt lat="50.5034" lon="3.12564">
        <ele>45.1</ele>
        <time>2008-10-24T23:13:56.098Z</time>
      </trkpt>
      <trkpt lat="50.50337" lon="3.12243">
        <ele>41.8</ele>
        <time>2008-10-24T23:14:18.814Z</time>
      </trkpt>
      <trkpt lat="50.50373" lon="3.12085">
        <ele>40.1</ele>
        <time>2008-10-24T23:14:30.648Z</time>
      </trkpt>
      <trkpt lat="50.50411" lon="3.11966">
        <ele>40.5</ele>
        <time>2008-10-24T23:14:40.122Z</time>
      </trkpt>
      <trkpt lat="50.50473" lon="3.1184">
        <ele>41.9</ele>
        <time>2008-10-24T23:14:51.320Z</time>
      </trkpt>
      <trkpt lat="50.50511" lon="3.11765">
        <ele>42.7</ele>
        <time>2008-10-24T23:14:58.081Z</time>
      </trkpt>
      <trkpt lat="50.50529" lon="3.11661">
        <ele>42.7</ele>
        <time>2008-10-24T23:15:05.764Z</time>
      </trkpt>
      <trkpt lat="50.50558" lon="3.11394">
        <ele>43.5</ele>
        <time>2008-10-24T23:15:24.909Z</time>
      </trkpt>
      <trkpt lat="50.5061" lon="3.11149">
        <ele>44.4</ele>
        <time>2008-10-24T23:15:43.105Z</time>
      </trkpt>
      <trkpt lat="50.50638" lon="3.11017">
        <ele>43.7</ele>
        <time>2008-10-24T23:15:53.023Z</time>
      </trkpt>
      <trkpt lat="50.50559" lon="3.10981">
        <ele>44.5</ele>
        <time>2008-10-24T23:16:02.181Z</time>
      </trkpt>
      <trkpt lat="50.50509" lon="3.1097">
        <ele>44.1</ele>
        <time>2008-10-24T23:16:07.847Z</time>
      </trkpt>
      <trkpt lat="50.50434" lon="3.10905">
        <ele>44.8</ele>
        <time>2008-10-24T23:16:17.343Z</time>
      </trkpt>
      <trkpt lat="50.50286" lon="3.10805">
        <ele>44.8</ele>
        <time>2008-10-24T23:16:35.232Z</time>
      </trkpt>
      <trkpt lat="50.50237" lon="3.10784">
        <ele>44.6</ele>
        <time>2008-10-24T23:16:40.939Z</time>
      </trkpt>
      <trkpt lat="50.50069" lon="3.10765">
        <ele>45.2</ele>
        <time>2008-10-24T23:16:59.610Z</time>
      </trkpt>
      <trkpt lat="50.49905" lon="3.10681">
        <ele>46.1</ele>
        <time>2008-10-24T23:17:18.795Z</time>
      </trkpt>
      <trkpt lat="50.49733" lon="3.10566">
        <ele>48.2</ele>
        <time>2008-10-24T23:17:39.562Z</time>
      </trkpt>
      <trkpt lat="50.49542" lon="3.10434">
        <ele>48</ele>
        <time>2008-10-24T23:18:02.776Z</time>
      </trkpt>
      <trkpt lat="50.4941" lon="3.10346">
        <ele>50.1</ele>
        <time>2008-10-24T23:18:18.746Z</time>
      </trkpt>
      <trkpt lat="50.49341" lon="3.10319">
        <ele>50.9</ele>
        <time>2008-10-24T23:18:26.590Z</time>
      </trkpt>
      <trkpt lat="50.49168" lon="3.1026">
        <ele>58</ele>
        <time>2008-10-24T23:18:46.379Z</time>
      </trkpt>
      <trkpt lat="50.49072" lon="3.10249">
        <ele>61.7</ele>
        <time>2008-10-24T23:18:57.031Z</time>
      </trkpt>
      <trkpt lat="50.48893" lon="3.10294">
        <ele>70.3</ele>
        <time>2008-10-24T23:19:17.232Z</time>
      </trkpt>
      <trkpt lat="50.48666" lon="3.10365">
        <ele>63.6</ele>
        <time>2008-10-24T23:19:42.965Z</time>
      </trkpt>
      <trkpt lat="50.48444" lon="3.10389">
        <ele>70.3</ele>
        <time>2008-10-24T23:20:07.668Z</time>
      </trkpt>
      <trkpt lat="50.48098" lon="3.10439">
        <ele>68.1</ele>
        <time>2008-10-24T23:20:46.380Z</time>
      </trkpt>
      <trkpt lat="50.47941" lon="3.10461">
        <ele>75</ele>
        <time>2008-10-24T23:21:03.846Z</time>
      </trkpt>
    </trkseg>
  </trk>
</gpx>